Time,TemperatureF,DewpointF,PressureIn,WindDirection,WindDirectionDegrees,WindSpeedMPH,WindSpeedGustMPH,Humidity,HourlyPrecipIn,Conditions,Clouds,dailyrainin,SoftwareType,DateUTC
2013-01-14 00:06:00,49.2,47.0,30.08,SSW,209,5.0,6.0,92,0.00,,,0.00,Wunderground v.1.15,2013-01-14 05:06:00,
2013-01-14 00:07:00,49.2,47.0,30.08,SW,227,10.0,10.0,92,0.00,,,0.00,Wunderground v.1.15,2013-01-14 05:07:00,
2013-01-14 00:09:00,49.2,47.0,30.08,SSW,207,7.0,10.0,92,0.00,,,0.00,Wunderground v.1.15,2013-01-14 05:09:00,
2013-01-14 00:11:00,49.3,47.1,30.08,South,173,7.0,14.0,92,0.00,,,0.00,Wunderground v.1.15,2013-01-14 05:11:00,
2013-01-14 00:12:00,49.3,47.1,30.07,SW,229,7.0,14.0,92,0.00,,,0.00,Wunderground v.1.15,2013-01-14 05:12:00,
2013-01-14 00:14:00,49.3,47.1,30.07,SW,220,7.0,14.0,92,0.00,,,0.00,Wunderground v.1.15,2013-01-14 05:14:00,
2013-01-14 00:16:00,49.3,47.1,30.07,SW,236,6.0,8.0,92,0.00,,,0.00,Wunderground v.1.15,2013-01-14 05:16:00,
2013-01-14 00:19:00,49.3,47.1,30.07,South,172,3.0,8.0,92,0.00,,,0.00,Wunderground v.1.15,2013-01-14 05:19:00,
2013-01-14 00:20:00,49.3,47.1,30.07,SW,232,5.0,8.0,92,0.00,,,0.00,Wunderground v.1.15,2013-01-14 05:20:00,
2013-01-14 00:21:00,49.3,47.1,30.07,WSW,240,7.0,8.0,92,0.00,,,0.00,Wunderground v.1.15,2013-01-14 05:21:00,
2013-01-14 00:22:00,49.3,47.1,30.07,SSW,208,3.0,8.0,92,0.00,,,0.00,Wunderground v.1.15,2013-01-14 05:22:00,
2013-01-14 00:24:00,49.2,47.0,30.07,SSW,199,5.0,8.0,92,0.00,,,0.00,Wunderground v.1.15,2013-01-14 05:24:00,
2013-01-14 00:27:00,49.2,47.0,30.07,SSW,205,5.0,7.0,92,0.00,,,0.00,Wunderground v.1.15,2013-01-14 05:27:00,
2013-01-14 00:28:00,49.2,47.0,30.07,SSE,150,13.0,13.0,92,0.00,,,0.00,Wunderground v.1.15,2013-01-14 05:28:00,
2013-01-14 00:29:00,49.2,47.0,30.07,SE,144,9.0,13.0,92,0.00,,,0.00,Wunderground v.1.15,2013-01-14 05:29:00,
2013-01-14 00:31:00,49.2,47.0,30.07,South,175,3.0,13.0,92,0.00,,,0.00,Wunderground v.1.15,2013-01-14 05:31:00,
2013-01-14 00:32:00,49.2,47.0,30.07,South,184,4.0,13.0,92,0.00,,,0.00,Wunderground v.1.15,2013-01-14 05:32:00,
2013-01-14 00:35:00,49.2,47.0,30.07,SSW,213,3.0,13.0,92,0.00,,,0.00,Wunderground v.1.15,2013-01-14 05:35:00,
2013-01-14 00:38:00,49.1,46.9,30.06,SW,234,4.0,7.0,92,0.00,,,0.00,Wunderground v.1.15,2013-01-14 05:38:00,
2013-01-14 00:39:00,49.1,46.9,30.07,South,175,3.0,7.0,92,0.00,,,0.00,Wunderground v.1.15,2013-01-14 05:39:00,
2013-01-14 00:41:00,49.1,46.9,30.06,South,180,4.0,7.0,92,0.00,,,0.00,Wunderground v.1.15,2013-01-14 05:41:00,
2013-01-14 00:43:00,49.1,46.9,30.06,South,181,1.0,7.0,92,0.00,,,0.00,Wunderground v.1.15,2013-01-14 05:43:00,
2013-01-14 00:46:00,49.1,46.9,30.06,SSW,208,1.0,4.0,92,0.00,,,0.00,Wunderground v.1.15,2013-01-14 05:46:00,
2013-01-14 00:48:00,49.1,46.9,30.06,SSW,200,1.0,4.0,92,0.00,,,0.00,Wunderground v.1.15,2013-01-14 05:48:00,
2013-01-14 00:49:00,49.0,46.8,30.06,SSE,167,3.0,4.0,92,0.00,,,0.00,Wunderground v.1.15,2013-01-14 05:49:00,
2013-01-14 00:50:00,49.1,46.9,30.06,SSE,167,1.0,4.0,92,0.00,,,0.00,Wunderground v.1.15,2013-01-14 05:50:00,
2013-01-14 00:51:00,49.0,46.8,30.06,SSW,207,3.0,4.0,92,0.00,,,0.00,Wunderground v.1.15,2013-01-14 05:51:00,
2013-01-14 00:56:00,49.0,46.8,30.07,South,180,3.0,3.0,92,0.00,,,0.00,Wunderground v.1.15,2013-01-14 05:56:00,
2013-01-14 00:57:00,49.0,46.8,30.06,South,181,1.0,3.0,92,0.00,,,0.00,Wunderground v.1.15,2013-01-14 05:57:00,
2013-01-14 00:58:00,49.0,46.8,30.06,SSW,195,3.0,3.0,92,0.00,,,0.00,Wunderground v.1.15,2013-01-14 05:58:00,
2013-01-14 00:59:00,49.0,46.8,30.06,South,180,2.0,3.0,92,0.00,,,0.00,Wunderground v.1.15,2013-01-14 05:59:00,
2013-01-14 01:03:00,49.0,46.8,30.06,SSW,210,5.0,5.0,92,0.00,,,0.00,Wunderground v.1.15,2013-01-14 06:03:00,
2013-01-14 01:04:00,49.0,46.8,30.06,South,169,2.0,5.0,92,0.00,,,0.00,Wunderground v.1.15,2013-01-14 06:04:00,
2013-01-14 01:05:00,49.0,46.8,30.06,SW,227,7.0,7.0,92,0.00,,,0.00,Wunderground v.1.15,2013-01-14 06:05:00,
2013-01-14 01:06:00,49.0,46.8,30.06,SSE,168,2.0,3.0,92,0.00,,,0.00,Wunderground v.1.15,2013-01-14 06:06:00,
2013-01-14 01:08:00,49.0,46.8,30.06,South,171,7.0,7.0,92,0.00,,,0.00,Wunderground v.1.15,2013-01-14 06:08:00,
2013-01-14 01:09:00,49.0,46.8,30.06,SE,130,4.0,7.0,92,0.00,,,0.00,Wunderground v.1.15,2013-01-14 06:09:00,
2013-01-14 01:12:00,49.0,46.8,30.06,SSW,202,3.0,7.0,92,0.00,,,0.00,Wunderground v.1.15,2013-01-14 06:12:00,
2013-01-14 01:13:00,49.0,46.8,30.06,SSW,207,1.0,7.0,92,0.00,,,0.00,Wunderground v.1.15,2013-01-14 06:13:00,
2013-01-14 01:18:00,49.0,46.8,30.06,SSW,194,2.0,3.0,92,0.00,,,0.00,Wunderground v.1.15,2013-01-14 06:18:00,
2013-01-14 01:20:00,49.0,46.8,30.06,South,175,1.0,3.0,92,0.00,,,0.00,Wunderground v.1.15,2013-01-14 06:20:00,
2013-01-14 01:23:00,48.9,46.7,30.07,SW,233,3.0,5.0,92,0.00,,,0.00,Wunderground v.1.15,2013-01-14 06:23:00,
2013-01-14 01:25:00,48.9,46.7,30.07,SW,227,2.0,5.0,92,0.00,,,0.00,Wunderground v.1.15,2013-01-14 06:25:00,
2013-01-14 01:27:00,49.0,46.8,30.06,South,179,1.0,3.0,92,0.00,,,0.00,Wunderground v.1.15,2013-01-14 06:27:00,
2013-01-14 01:28:00,48.9,46.7,30.07,SSE,161,3.0,3.0,92,0.00,,,0.00,Wunderground v.1.15,2013-01-14 06:28:00,
2013-01-14 01:30:00,49.0,46.8,30.07,SSW,211,4.0,4.0,92,0.00,,,0.00,Wunderground v.1.15,2013-01-14 06:30:00,
2013-01-14 01:33:00,49.0,46.8,30.07,South,182,6.0,7.0,92,0.00,,,0.00,Wunderground v.1.15,2013-01-14 06:33:00,
2013-01-14 01:34:00,49.1,46.9,30.07,South,170,4.0,7.0,92,0.00,,,0.00,Wunderground v.1.15,2013-01-14 06:34:00,
2013-01-14 01:36:00,49.1,46.9,30.07,SW,232,5.0,5.0,92,0.00,,,0.00,Wunderground v.1.15,2013-01-14 06:36:00,
2013-01-14 01:41:00,49.1,46.9,30.07,SW,236,9.0,9.0,92,0.00,,,0.00,Wunderground v.1.15,2013-01-14 06:41:00,
2013-01-14 01:42:00,49.1,46.9,30.06,SW,225,3.0,9.0,92,0.00,,,0.00,Wunderground v.1.15,2013-01-14 06:42:00,
2013-01-14 01:43:00,49.1,46.9,30.06,South,184,2.0,9.0,92,0.00,,,0.00,Wunderground v.1.15,2013-01-14 06:43:00,
2013-01-14 01:48:00,49.0,46.8,30.07,SW,229,6.0,6.0,92,0.00,,,0.00,Wunderground v.1.15,2013-01-14 06:48:00,
2013-01-14 01:49:00,49.0,46.8,30.07,SSW,211,7.0,7.0,92,0.00,,,0.00,Wunderground v.1.15,2013-01-14 06:49:00,
2013-01-14 01:53:00,49.0,46.8,30.07,South,170,5.0,7.0,92,0.00,,,0.00,Wunderground v.1.15,2013-01-14 06:53:00,
2013-01-14 01:54:00,49.0,47.1,30.07,SSW,195,8.0,8.0,93,0.00,,,0.00,Wunderground v.1.15,2013-01-14 06:54:00,
2013-01-14 01:55:00,49.0,46.8,30.07,SE,124,3.0,8.0,92,0.00,,,0.00,Wunderground v.1.15,2013-01-14 06:55:00,
2013-01-14 01:59:00,49.1,47.2,30.06,WSW,239,7.0,8.0,93,0.00,,,0.00,Wunderground v.1.15,2013-01-14 06:59:00,
2013-01-14 02:01:00,49.0,47.1,30.06,SW,236,4.0,8.0,93,0.00,,,0.00,Wunderground v.1.15,2013-01-14 07:01:00,
2013-01-14 02:02:00,49.0,47.1,30.06,SSW,205,4.0,8.0,93,0.00,,,0.00,Wunderground v.1.15,2013-01-14 07:02:00,
2013-01-14 02:03:00,49.0,47.1,30.06,SSW,208,1.0,8.0,93,0.00,,,0.00,Wunderground v.1.15,2013-01-14 07:03:00,
2013-01-14 02:08:00,49.0,47.1,30.06,South,181,2.0,4.0,93,0.00,,,0.00,Wunderground v.1.15,2013-01-14 07:08:00,
2013-01-14 02:09:00,49.0,47.1,30.06,WSW,257,5.0,5.0,93,0.00,,,0.00,Wunderground v.1.15,2013-01-14 07:09:00,
2013-01-14 02:10:00,49.0,47.1,30.07,SSW,211,7.0,7.0,93,0.00,,,0.00,Wunderground v.1.15,2013-01-14 07:10:00,
2013-01-14 02:15:00,49.1,47.2,30.06,SW,236,6.0,7.0,93,0.00,,,0.00,Wunderground v.1.15,2013-01-14 07:15:00,
2013-01-14 02:16:00,49.1,47.2,30.06,SSE,157,2.0,4.0,93,0.00,,,0.00,Wunderground v.1.15,2013-01-14 07:16:00,
2013-01-14 02:17:00,49.1,47.2,30.07,SSW,211,1.0,4.0,93,0.00,,,0.00,Wunderground v.1.15,2013-01-14 07:17:00,
2013-01-14 02:18:00,49.1,47.2,30.07,SSW,211,3.0,5.0,93,0.00,,,0.00,Wunderground v.1.15,2013-01-14 07:18:00,
2013-01-14 02:20:00,49.1,46.9,30.06,WSW,240,2.0,5.0,92,0.00,,,0.00,Wunderground v.1.15,2013-01-14 07:20:00,
2013-01-14 02:22:00,49.1,47.2,30.06,SSW,196,4.0,6.0,93,0.00,,,0.00,Wunderground v.1.15,2013-01-14 07:22:00,
2013-01-14 02:23:00,49.1,47.2,30.06,South,184,1.0,7.0,93,0.00,,,0.00,Wunderground v.1.15,2013-01-14 07:23:00,
2013-01-14 02:25:00,49.1,46.9,30.06,SSW,207,3.0,7.0,92,0.00,,,0.00,Wunderground v.1.15,2013-01-14 07:25:00,
2013-01-14 02:27:00,49.1,47.2,30.06,South,176,3.0,3.0,93,0.00,,,0.00,Wunderground v.1.15,2013-01-14 07:27:00,
2013-01-14 02:28:00,49.1,47.2,30.07,SSW,207,9.0,10.0,93,0.00,,,0.00,Wunderground v.1.15,2013-01-14 07:28:00,
2013-01-14 02:30:00,49.2,47.0,30.07,South,180,5.0,10.0,92,0.00,,,0.00,Wunderground v.1.15,2013-01-14 07:30:00,
2013-01-14 02:32:00,49.2,47.0,30.07,SSW,202,0.0,10.0,92,0.00,,,0.00,Wunderground v.1.15,2013-01-14 07:32:00,
2013-01-14 02:33:00,49.2,47.0,30.07,SSW,198,0.0,10.0,92,0.00,,,0.00,Wunderground v.1.15,2013-01-14 07:33:00,
2013-01-14 02:36:00,49.1,47.2,30.07,SW,219,1.0,10.0,93,0.00,,,0.00,Wunderground v.1.15,2013-01-14 07:36:00,
2013-01-14 02:37:00,49.2,47.0,30.07,WSW,249,6.0,6.0,92,0.00,,,0.00,Wunderground v.1.15,2013-01-14 07:37:00,
2013-01-14 02:38:00,49.2,47.0,30.07,WSW,248,1.0,6.0,92,0.00,,,0.00,Wunderground v.1.15,2013-01-14 07:38:00,
2013-01-14 02:41:00,49.2,47.0,30.06,West,259,5.0,7.0,92,0.00,,,0.00,Wunderground v.1.15,2013-01-14 07:41:00,
2013-01-14 02:42:00,49.2,47.0,30.06,WSW,243,3.0,7.0,92,0.00,,,0.00,Wunderground v.1.15,2013-01-14 07:42:00,
2013-01-14 02:43:00,49.2,47.0,30.06,South,177,3.0,7.0,92,0.00,,,0.00,Wunderground v.1.15,2013-01-14 07:43:00,
2013-01-14 02:44:00,49.2,47.0,30.06,SSW,213,5.0,11.0,92,0.00,,,0.00,Wunderground v.1.15,2013-01-14 07:44:00,
2013-01-14 02:46:00,49.2,47.0,30.07,WSW,249,7.0,7.0,92,0.00,,,0.00,Wunderground v.1.15,2013-01-14 07:46:00,
2013-01-14 02:48:00,49.3,47.1,30.06,SSW,202,1.0,7.0,92,0.00,,,0.00,Wunderground v.1.15,2013-01-14 07:48:00,
2013-01-14 02:49:00,49.2,47.0,30.06,South,185,2.0,7.0,92,0.00,,,0.00,Wunderground v.1.15,2013-01-14 07:49:00,
2013-01-14 02:51:00,49.2,47.0,30.06,SSW,205,1.0,7.0,92,0.00,,,0.00,Wunderground v.1.15,2013-01-14 07:51:00,
2013-01-14 02:53:00,49.2,47.0,30.06,SW,227,4.0,7.0,92,0.00,,,0.00,Wunderground v.1.15,2013-01-14 07:53:00,
2013-01-14 02:54:00,49.2,47.0,30.06,SW,229,2.0,7.0,92,0.00,,,0.00,Wunderground v.1.15,2013-01-14 07:54:00,
2013-01-14 02:57:00,49.2,47.0,30.06,SSW,209,1.0,4.0,92,0.00,,,0.00,Wunderground v.1.15,2013-01-14 07:57:00,
2013-01-14 02:58:00,49.2,47.0,30.06,South,186,1.0,4.0,92,0.00,,,0.00,Wunderground v.1.15,2013-01-14 07:58:00,
2013-01-14 03:01:00,49.2,47.0,30.06,South,187,2.0,7.0,92,0.00,,,0.00,Wunderground v.1.15,2013-01-14 08:01:00,
2013-01-14 03:02:00,49.2,47.0,30.06,SW,218,2.0,7.0,92,0.00,,,0.00,Wunderground v.1.15,2013-01-14 08:02:00,
2013-01-14 03:04:00,49.2,47.0,30.06,South,189,7.0,9.0,92,0.00,,,0.00,Wunderground v.1.15,2013-01-14 08:04:00,
2013-01-14 03:06:00,49.2,47.0,30.05,SW,225,8.0,10.0,92,0.00,,,0.00,Wunderground v.1.15,2013-01-14 08:06:00,
2013-01-14 03:07:00,49.2,47.0,30.06,SW,215,0.0,10.0,92,0.00,,,0.00,Wunderground v.1.15,2013-01-14 08:07:00,
2013-01-14 03:09:00,49.2,47.0,30.05,SW,217,2.0,10.0,92,0.00,,,0.00,Wunderground v.1.15,2013-01-14 08:09:00,
2013-01-14 03:11:00,49.2,47.0,30.05,SSW,208,4.0,10.0,92,0.00,,,0.00,Wunderground v.1.15,2013-01-14 08:11:00,
2013-01-14 03:12:00,49.1,47.2,30.05,SSW,202,7.0,10.0,93,0.00,,,0.00,Wunderground v.1.15,2013-01-14 08:12:00,
2013-01-14 03:14:00,49.1,47.2,30.05,WSW,241,1.0,10.0,93,0.00,,,0.00,Wunderground v.1.15,2013-01-14 08:14:00,
2013-01-14 03:18:00,49.1,47.2,30.05,SSW,211,4.0,7.0,93,0.00,,,0.00,Wunderground v.1.15,2013-01-14 08:18:00,
2013-01-14 03:19:00,49.1,47.2,30.05,SSW,204,4.0,7.0,93,0.00,,,0.00,Wunderground v.1.15,2013-01-14 08:19:00,
2013-01-14 03:21:00,49.1,47.2,30.05,SSW,198,6.0,11.0,93,0.00,,,0.00,Wunderground v.1.15,2013-01-14 08:21:00,
2013-01-14 03:23:00,49.1,47.2,30.05,South,178,2.0,11.0,93,0.00,,,0.00,Wunderground v.1.15,2013-01-14 08:23:00,
2013-01-14 03:24:00,49.1,47.2,30.05,South,182,3.0,11.0,93,0.00,,,0.00,Wunderground v.1.15,2013-01-14 08:24:00,
2013-01-14 03:26:00,49.1,47.2,30.05,WSW,239,2.0,11.0,93,0.00,,,0.00,Wunderground v.1.15,2013-01-14 08:26:00,
2013-01-14 03:28:00,49.1,47.2,30.05,SW,225,6.0,7.0,93,0.00,,,0.00,Wunderground v.1.15,2013-01-14 08:28:00,
2013-01-14 03:30:00,49.1,47.2,30.05,South,188,2.0,9.0,93,0.00,,,0.00,Wunderground v.1.15,2013-01-14 08:30:00,
2013-01-14 03:31:00,49.1,47.2,30.04,WSW,238,7.0,9.0,93,0.00,,,0.00,Wunderground v.1.15,2013-01-14 08:31:00,
2013-01-14 03:33:00,49.1,47.2,30.04,South,188,5.0,9.0,93,0.00,,,0.00,Wunderground v.1.15,2013-01-14 08:33:00,
2013-01-14 03:35:00,49.1,47.2,30.04,SW,225,6.0,9.0,93,0.00,,,0.00,Wunderground v.1.15,2013-01-14 08:35:00,
2013-01-14 03:36:00,49.1,47.2,30.04,WSW,251,5.0,5.0,93,0.00,,,0.00,Wunderground v.1.15,2013-01-14 08:36:00,
2013-01-14 03:39:00,49.1,47.2,30.04,SW,236,1.0,6.0,93,0.00,,,0.00,Wunderground v.1.15,2013-01-14 08:39:00,
2013-01-14 03:41:00,49.0,47.1,30.04,South,186,4.0,11.0,93,0.00,,,0.00,Wunderground v.1.15,2013-01-14 08:41:00,
2013-01-14 03:44:00,49.0,47.1,30.04,South,189,3.0,11.0,93,0.00,,,0.00,Wunderground v.1.15,2013-01-14 08:44:00,
2013-01-14 03:46:00,49.0,47.1,30.04,SE,142,4.0,4.0,93,0.00,,,0.00,Wunderground v.1.15,2013-01-14 08:46:00,
2013-01-14 03:49:00,49.0,47.1,30.04,SSW,211,4.0,10.0,93,0.00,,,0.00,Wunderground v.1.15,2013-01-14 08:49:00,
2013-01-14 03:50:00,49.0,47.1,30.04,WSW,239,8.0,10.0,93,0.00,,,0.00,Wunderground v.1.15,2013-01-14 08:50:00,
2013-01-14 03:51:00,49.0,47.1,30.04,SW,228,5.0,12.0,93,0.00,,,0.00,Wunderground v.1.15,2013-01-14 08:51:00,
2013-01-14 03:52:00,49.1,47.2,30.04,WSW,239,7.0,12.0,93,0.00,,,0.00,Wunderground v.1.15,2013-01-14 08:52:00,
2013-01-14 03:54:00,49.0,47.1,30.04,South,178,4.0,12.0,93,0.00,,,0.00,Wunderground v.1.15,2013-01-14 08:54:00,
2013-01-14 03:55:00,49.0,47.1,30.04,SSW,197,2.0,12.0,93,0.00,,,0.00,Wunderground v.1.15,2013-01-14 08:55:00,
2013-01-14 03:56:00,48.9,46.7,30.04,West,259,5.0,11.0,92,0.00,,,0.00,Wunderground v.1.15,2013-01-14 08:56:00,
2013-01-14 03:57:00,48.9,46.7,30.04,WNW,286,3.0,19.0,92,0.00,,,0.00,Wunderground v.1.15,2013-01-14 08:57:00,
2013-01-14 03:59:00,48.9,46.7,30.03,SW,232,3.0,19.0,92,0.00,,,0.00,Wunderground v.1.15,2013-01-14 08:59:00,
2013-01-14 04:00:00,48.8,46.6,30.03,SSW,198,7.0,19.0,92,0.00,,,0.00,Wunderground v.1.15,2013-01-14 09:00:00,
2013-01-14 04:01:00,48.8,46.6,30.03,SW,236,9.0,19.0,92,0.00,,,0.00,Wunderground v.1.15,2013-01-14 09:01:00,
2013-01-14 04:03:00,48.8,46.6,30.04,WSW,243,9.0,19.0,92,0.00,,,0.00,Wunderground v.1.15,2013-01-14 09:03:00,
2013-01-14 04:05:00,48.8,46.6,30.04,SSW,211,8.0,19.0,92,0.00,,,0.00,Wunderground v.1.15,2013-01-14 09:05:00,
2013-01-14 04:07:00,48.8,46.6,30.04,WSW,255,11.0,12.0,92,0.00,,,0.00,Wunderground v.1.15,2013-01-14 09:07:00,
2013-01-14 04:08:00,48.8,46.6,30.03,WSW,247,8.0,12.0,92,0.00,,,0.00,Wunderground v.1.15,2013-01-14 09:08:00,
2013-01-14 04:10:00,48.7,46.5,30.03,SW,215,0.0,12.0,92,0.00,,,0.00,Wunderground v.1.15,2013-01-14 09:10:00,
2013-01-14 04:11:00,48.7,46.5,30.03,SSW,203,6.0,12.0,92,0.00,,,0.00,Wunderground v.1.15,2013-01-14 09:11:00,
2013-01-14 04:12:00,48.7,46.5,30.03,WSW,252,5.0,12.0,92,0.00,,,0.00,Wunderground v.1.15,2013-01-14 09:12:00,
2013-01-14 04:13:00,48.6,46.4,30.03,WSW,244,4.0,12.0,92,0.00,,,0.00,Wunderground v.1.15,2013-01-14 09:13:00,
2013-01-14 04:15:00,48.6,46.4,30.04,SW,236,2.0,12.0,92,0.00,,,0.00,Wunderground v.1.15,2013-01-14 09:15:00,
2013-01-14 04:16:00,48.6,46.4,30.03,ESE,103,5.0,5.0,92,0.00,,,0.00,Wunderground v.1.15,2013-01-14 09:16:00,
2013-01-14 04:17:00,48.6,46.4,30.04,WSW,254,1.0,7.0,92,0.00,,,0.00,Wunderground v.1.15,2013-01-14 09:17:00,
2013-01-14 04:18:00,48.6,46.4,30.03,WSW,246,4.0,7.0,92,0.00,,,0.00,Wunderground v.1.15,2013-01-14 09:18:00,
2013-01-14 04:20:00,48.6,46.4,30.03,West,281,3.0,7.0,92,0.00,,,0.00,Wunderground v.1.15,2013-01-14 09:20:00,
2013-01-14 04:21:00,48.6,46.4,30.03,WSW,258,6.0,7.0,92,0.00,,,0.00,Wunderground v.1.15,2013-01-14 09:21:00,
2013-01-14 04:22:00,48.6,46.4,30.03,WSW,257,1.0,7.0,92,0.00,,,0.00,Wunderground v.1.15,2013-01-14 09:22:00,
2013-01-14 04:23:00,48.6,46.4,30.03,SW,219,6.0,7.0,92,0.00,,,0.00,Wunderground v.1.15,2013-01-14 09:23:00,
2013-01-14 04:26:00,48.5,46.3,30.03,SW,226,7.0,7.0,92,0.00,,,0.00,Wunderground v.1.15,2013-01-14 09:26:00,
2013-01-14 04:27:00,48.5,46.3,30.03,West,271,2.0,9.0,92,0.00,,,0.00,Wunderground v.1.15,2013-01-14 09:27:00,
2013-01-14 04:28:00,48.5,46.3,30.03,SSW,198,1.0,9.0,92,0.00,,,0.00,Wunderground v.1.15,2013-01-14 09:28:00,
2013-01-14 04:29:00,48.5,46.3,30.03,SW,220,9.0,9.0,92,0.00,,,0.00,Wunderground v.1.15,2013-01-14 09:29:00,
2013-01-14 04:31:00,48.5,46.3,30.03,WSW,245,5.0,9.0,92,0.00,,,0.00,Wunderground v.1.15,2013-01-14 09:31:00,
2013-01-14 04:32:00,48.5,46.3,30.03,SE,126,2.0,9.0,92,0.00,,,0.00,Wunderground v.1.15,2013-01-14 09:32:00,
2013-01-14 04:34:00,48.5,46.3,30.03,WSW,241,5.0,12.0,92,0.00,,,0.00,Wunderground v.1.15,2013-01-14 09:34:00,
2013-01-14 04:36:00,48.5,46.3,30.03,WSW,243,5.0,12.0,92,0.00,,,0.00,Wunderground v.1.15,2013-01-14 09:36:00,
2013-01-14 04:38:00,48.5,46.3,30.03,WSW,254,4.0,8.0,92,0.00,,,0.00,Wunderground v.1.15,2013-01-14 09:38:00,
2013-01-14 04:40:00,48.5,46.3,30.03,SSW,200,4.0,10.0,92,0.00,,,0.00,Wunderground v.1.15,2013-01-14 09:40:00,
2013-01-14 04:41:00,48.5,46.3,30.03,South,190,4.0,10.0,92,0.00,,,0.00,Wunderground v.1.15,2013-01-14 09:41:00,
2013-01-14 04:43:00,48.5,46.3,30.03,SW,233,1.0,10.0,92,0.00,,,0.00,Wunderground v.1.15,2013-01-14 09:43:00,
2013-01-14 04:45:00,48.5,46.3,30.02,WSW,252,0.0,10.0,92,0.00,,,0.00,Wunderground v.1.15,2013-01-14 09:45:00,
2013-01-14 04:46:00,48.5,46.3,30.02,WSW,253,3.0,4.0,92,0.00,,,0.00,Wunderground v.1.15,2013-01-14 09:46:00,
2013-01-14 04:49:00,48.5,46.3,30.02,West,260,2.0,10.0,92,0.00,,,0.00,Wunderground v.1.15,2013-01-14 09:49:00,
2013-01-14 04:50:00,48.5,46.3,30.02,SW,232,6.0,10.0,92,0.00,,,0.00,Wunderground v.1.15,2013-01-14 09:50:00,
2013-01-14 04:51:00,48.5,46.3,30.02,SSW,202,6.0,10.0,92,0.00,,,0.00,Wunderground v.1.15,2013-01-14 09:51:00,
2013-01-14 04:54:00,48.5,46.3,30.03,SW,219,3.0,10.0,92,0.00,,,0.00,Wunderground v.1.15,2013-01-14 09:54:00,
2013-01-14 04:56:00,48.5,46.3,30.03,South,188,4.0,10.0,92,0.00,,,0.00,Wunderground v.1.15,2013-01-14 09:56:00,
2013-01-14 04:58:00,48.5,46.3,30.03,SW,232,3.0,7.0,92,0.00,,,0.00,Wunderground v.1.15,2013-01-14 09:58:00,
2013-01-14 05:00:00,48.5,46.3,30.03,SW,227,2.0,8.0,92,0.00,,,0.00,Wunderground v.1.15,2013-01-14 10:00:00,
2013-01-14 05:01:00,48.5,46.3,30.03,WSW,244,1.0,8.0,92,0.00,,,0.00,Wunderground v.1.15,2013-01-14 10:01:00,
2013-01-14 05:04:00,48.5,46.6,30.03,SW,221,4.0,8.0,93,0.00,,,0.00,Wunderground v.1.15,2013-01-14 10:04:00,
2013-01-14 05:05:00,48.5,46.6,30.03,SW,221,4.0,8.0,93,0.00,,,0.00,Wunderground v.1.15,2013-01-14 10:05:00,
2013-01-14 05:06:00,48.5,46.6,30.03,East,91,1.0,4.0,93,0.00,,,0.00,Wunderground v.1.15,2013-01-14 10:06:00,
2013-01-14 05:10:00,48.5,46.6,30.03,South,186,6.0,9.0,93,0.00,,,0.00,Wunderground v.1.15,2013-01-14 10:10:00,
2013-01-14 05:11:00,48.5,46.6,30.03,SSW,211,3.0,9.0,93,0.00,,,0.00,Wunderground v.1.15,2013-01-14 10:11:00,
2013-01-14 05:12:00,48.6,46.7,30.03,SSW,211,1.0,9.0,93,0.00,,,0.00,Wunderground v.1.15,2013-01-14 10:12:00,
2013-01-14 05:15:00,48.8,46.6,30.03,SSE,161,2.0,9.0,92,0.00,,,0.00,Wunderground v.1.15,2013-01-14 10:15:00,
2013-01-14 05:16:00,48.9,46.7,30.03,WSW,244,3.0,3.0,92,0.00,,,0.00,Wunderground v.1.15,2013-01-14 10:16:00,
2013-01-14 05:18:00,48.8,46.6,30.03,SSW,192,2.0,6.0,92,0.00,,,0.00,Wunderground v.1.15,2013-01-14 10:18:00,
2013-01-14 05:20:00,48.7,46.5,30.02,SW,227,4.0,6.0,92,0.00,,,0.00,Wunderground v.1.15,2013-01-14 10:20:00,
2013-01-14 05:22:00,48.8,46.6,30.02,WSW,246,1.0,7.0,92,0.00,,,0.00,Wunderground v.1.15,2013-01-14 10:22:00,
2013-01-14 05:23:00,48.8,46.6,30.02,SW,215,3.0,7.0,92,0.00,,,0.00,Wunderground v.1.15,2013-01-14 10:23:00,
2013-01-14 05:25:00,48.7,46.5,30.03,SW,220,4.0,7.0,92,0.00,,,0.00,Wunderground v.1.15,2013-01-14 10:25:00,
2013-01-14 05:27:00,48.6,46.4,30.03,SW,232,2.0,6.0,92,0.00,,,0.00,Wunderground v.1.15,2013-01-14 10:27:00,
2013-01-14 05:28:00,48.7,46.5,30.03,SW,229,2.0,6.0,92,0.00,,,0.00,Wunderground v.1.15,2013-01-14 10:28:00,
2013-01-14 05:30:00,48.7,46.5,30.03,SSW,192,7.0,8.0,92,0.00,,,0.00,Wunderground v.1.15,2013-01-14 10:30:00,
2013-01-14 05:31:00,48.7,46.5,30.03,SSW,193,6.0,8.0,92,0.00,,,0.00,Wunderground v.1.15,2013-01-14 10:31:00,
2013-01-14 05:32:00,48.7,46.5,30.02,SSW,210,8.0,9.0,92,0.00,,,0.00,Wunderground v.1.15,2013-01-14 10:32:00,
2013-01-14 05:33:00,48.8,46.6,30.02,WSW,240,6.0,9.0,92,0.00,,,0.00,Wunderground v.1.15,2013-01-14 10:33:00,
2013-01-14 05:35:00,48.8,46.6,30.02,SW,234,7.0,9.0,92,0.00,,,0.00,Wunderground v.1.15,2013-01-14 10:35:00,
2013-01-14 05:36:00,48.8,46.6,30.02,SW,217,4.0,10.0,92,0.00,,,0.00,Wunderground v.1.15,2013-01-14 10:36:00,
2013-01-14 05:37:00,48.8,46.6,30.01,SW,219,4.0,7.0,92,0.00,,,0.00,Wunderground v.1.15,2013-01-14 10:37:00,
2013-01-14 05:39:00,48.8,46.6,30.01,South,180,2.0,7.0,92,0.00,,,0.00,Wunderground v.1.15,2013-01-14 10:39:00,
2013-01-14 05:40:00,48.8,46.6,30.02,SW,223,9.0,11.0,92,0.00,,,0.00,Wunderground v.1.15,2013-01-14 10:40:00,
2013-01-14 05:41:00,48.8,46.6,30.02,SSW,205,2.0,11.0,92,0.00,,,0.00,Wunderground v.1.15,2013-01-14 10:41:00,
2013-01-14 05:42:00,48.9,46.7,30.02,SSW,205,1.0,11.0,92,0.00,,,0.00,Wunderground v.1.15,2013-01-14 10:42:00,
2013-01-14 05:45:00,48.8,46.6,30.02,SW,216,3.0,11.0,92,0.00,,,0.00,Wunderground v.1.15,2013-01-14 10:45:00,
2013-01-14 05:46:00,48.8,46.6,30.02,SW,225,3.0,11.0,92,0.00,,,0.00,Wunderground v.1.15,2013-01-14 10:46:00,
2013-01-14 05:47:00,48.8,46.6,30.02,SSW,196,3.0,7.0,92,0.00,,,0.00,Wunderground v.1.15,2013-01-14 10:47:00,
2013-01-14 05:48:00,48.8,46.6,30.02,West,267,4.0,11.0,92,0.00,,,0.00,Wunderground v.1.15,2013-01-14 10:48:00,
2013-01-14 05:50:00,48.9,46.7,30.02,SW,227,8.0,11.0,92,0.00,,,0.00,Wunderground v.1.15,2013-01-14 10:50:00,
2013-01-14 05:51:00,48.9,47.0,30.02,South,187,2.0,11.0,93,0.00,,,0.00,Wunderground v.1.15,2013-01-14 10:51:00,
2013-01-14 05:52:00,48.9,47.0,30.02,SW,228,3.0,11.0,93,0.00,,,0.00,Wunderground v.1.15,2013-01-14 10:52:00,
2013-01-14 05:53:00,48.9,47.0,30.02,SW,227,2.0,11.0,93,0.00,,,0.00,Wunderground v.1.15,2013-01-14 10:53:00,
2013-01-14 05:55:00,49.0,47.1,30.02,SW,217,3.0,11.0,93,0.00,,,0.00,Wunderground v.1.15,2013-01-14 10:55:00,
2013-01-14 05:56:00,49.0,47.1,30.02,SSW,212,2.0,5.0,93,0.00,,,0.00,Wunderground v.1.15,2013-01-14 10:56:00,
2013-01-14 05:58:00,49.0,47.1,30.02,WSW,242,3.0,7.0,93,0.00,,,0.00,Wunderground v.1.15,2013-01-14 10:58:00,
2013-01-14 06:00:00,49.0,47.1,30.03,WSW,248,5.0,9.0,93,0.00,,,0.00,Wunderground v.1.15,2013-01-14 11:00:00,
2013-01-14 06:01:00,49.1,47.2,30.02,SW,215,5.0,9.0,93,0.00,,,0.00,Wunderground v.1.15,2013-01-14 11:01:00,
2013-01-14 06:03:00,49.1,47.2,30.02,SW,215,11.0,11.0,93,0.00,,,0.00,Wunderground v.1.15,2013-01-14 11:03:00,
2013-01-14 06:05:00,49.2,47.3,30.02,SW,234,6.0,12.0,93,0.00,,,0.00,Wunderground v.1.15,2013-01-14 11:05:00,
2013-01-14 06:07:00,49.2,47.0,30.02,WSW,239,6.0,6.0,92,0.00,,,0.00,Wunderground v.1.15,2013-01-14 11:07:00,
2013-01-14 06:08:00,49.2,47.0,30.02,WSW,252,6.0,8.0,92,0.00,,,0.00,Wunderground v.1.15,2013-01-14 11:08:00,
2013-01-14 06:10:00,49.3,47.1,30.02,South,179,5.0,8.0,92,0.00,,,0.00,Wunderground v.1.15,2013-01-14 11:10:00,
2013-01-14 06:12:00,49.3,47.1,30.02,SW,227,2.0,8.0,92,0.00,,,0.00,Wunderground v.1.15,2013-01-14 11:12:00,
2013-01-14 06:13:00,49.4,47.2,30.01,SW,227,4.0,8.0,92,0.00,,,0.00,Wunderground v.1.15,2013-01-14 11:13:00,
2013-01-14 06:15:00,49.7,47.8,30.01,SSW,192,3.0,8.0,93,0.00,,,0.00,Wunderground v.1.15,2013-01-14 11:15:00,
2013-01-14 06:17:00,49.6,47.7,30.01,SW,230,0.0,6.0,93,0.00,,,0.00,Wunderground v.1.15,2013-01-14 11:17:00,
2013-01-14 06:18:00,49.5,47.6,30.01,SW,230,3.0,6.0,93,0.00,,,0.00,Wunderground v.1.15,2013-01-14 11:18:00,
2013-01-14 06:21:00,49.4,47.2,30.01,SSW,207,5.0,8.0,92,0.00,,,0.00,Wunderground v.1.15,2013-01-14 11:21:00,
2013-01-14 06:23:00,49.4,47.2,30.01,SSW,198,4.0,9.0,92,0.00,,,0.00,Wunderground v.1.15,2013-01-14 11:23:00,
2013-01-14 06:25:00,49.4,47.2,30.01,South,190,0.0,9.0,92,0.00,,,0.00,Wunderground v.1.15,2013-01-14 11:25:00,
2013-01-14 06:26:00,49.4,47.2,30.01,SSW,198,4.0,4.0,92,0.00,,,0.00,Wunderground v.1.15,2013-01-14 11:26:00,
2013-01-14 06:28:00,49.5,47.3,30.01,South,184,1.0,5.0,92,0.00,,,0.00,Wunderground v.1.15,2013-01-14 11:28:00,
2013-01-14 06:29:00,49.5,47.3,30.01,SSW,203,1.0,5.0,92,0.00,,,0.00,Wunderground v.1.15,2013-01-14 11:29:00,
2013-01-14 06:30:00,49.5,47.3,30.01,SSW,196,3.0,5.0,92,0.00,,,0.00,Wunderground v.1.15,2013-01-14 11:30:00,
2013-01-14 06:31:00,49.5,47.3,30.01,SSW,198,3.0,5.0,92,0.00,,,0.00,Wunderground v.1.15,2013-01-14 11:31:00,
2013-01-14 06:33:00,49.5,47.6,30.01,SSW,202,2.0,5.0,93,0.00,,,0.00,Wunderground v.1.15,2013-01-14 11:33:00,
2013-01-14 06:34:00,49.5,47.6,30.01,SSW,203,2.0,5.0,93,0.00,,,0.00,Wunderground v.1.15,2013-01-14 11:34:00,
2013-01-14 06:35:00,49.5,47.6,30.01,SSW,203,0.0,5.0,93,0.00,,,0.00,Wunderground v.1.15,2013-01-14 11:35:00,
2013-01-14 06:36:00,49.5,47.6,30.01,SSW,211,6.0,6.0,93,0.00,,,0.00,Wunderground v.1.15,2013-01-14 11:36:00,
2013-01-14 06:38:00,49.6,47.7,30.00,South,190,2.0,7.0,93,0.00,,,0.00,Wunderground v.1.15,2013-01-14 11:38:00,
2013-01-14 06:39:00,49.6,47.7,30.00,South,184,6.0,7.0,93,0.00,,,0.00,Wunderground v.1.15,2013-01-14 11:39:00,
2013-01-14 06:40:00,49.6,47.7,29.99,South,180,3.0,7.0,93,0.00,,,0.00,Wunderground v.1.15,2013-01-14 11:40:00,
2013-01-14 06:41:00,49.6,47.7,29.99,South,179,3.0,7.0,93,0.00,,,0.00,Wunderground v.1.15,2013-01-14 11:41:00,
2013-01-14 06:43:00,49.7,47.8,29.98,SE,146,7.0,7.0,93,0.00,,,0.00,Wunderground v.1.15,2013-01-14 11:43:00,
2013-01-14 06:44:00,49.8,47.9,29.98,SSW,199,3.0,7.0,93,0.00,,,0.00,Wunderground v.1.15,2013-01-14 11:44:00,
2013-01-14 06:46:00,49.8,47.9,29.99,SSW,192,5.0,5.0,93,0.00,,,0.00,Wunderground v.1.15,2013-01-14 11:46:00,
2013-01-14 06:47:00,49.8,47.9,29.99,SSW,196,4.0,7.0,93,0.00,,,0.00,Wunderground v.1.15,2013-01-14 11:47:00,
2013-01-14 06:48:00,49.9,48.0,29.99,SSE,165,3.0,7.0,93,0.00,,,0.00,Wunderground v.1.15,2013-01-14 11:48:00,
2013-01-14 06:50:00,49.9,48.0,29.99,South,178,7.0,7.0,93,0.00,,,0.00,Wunderground v.1.15,2013-01-14 11:50:00,
2013-01-14 06:51:00,50.0,47.8,29.99,SSW,208,3.0,7.0,92,0.00,,,0.00,Wunderground v.1.15,2013-01-14 11:51:00,
2013-01-14 06:52:00,50.0,47.8,29.99,SE,128,2.0,7.0,92,0.00,,,0.00,Wunderground v.1.15,2013-01-14 11:52:00,
2013-01-14 06:53:00,50.0,47.8,29.99,SW,221,6.0,7.0,92,0.00,,,0.00,Wunderground v.1.15,2013-01-14 11:53:00,
2013-01-14 06:55:00,50.1,47.9,30.00,SSW,200,7.0,12.0,92,0.00,,,0.00,Wunderground v.1.15,2013-01-14 11:55:00,
2013-01-14 06:57:00,50.2,48.3,29.99,South,180,9.0,9.0,93,0.00,,,0.00,Wunderground v.1.15,2013-01-14 11:57:00,
2013-01-14 06:58:00,50.2,48.3,29.99,South,174,5.0,13.0,93,0.00,,,0.00,Wunderground v.1.15,2013-01-14 11:58:00,
2013-01-14 07:00:00,50.3,48.4,29.98,South,175,5.0,13.0,93,0.00,,,0.00,Wunderground v.1.15,2013-01-14 12:00:00,
2013-01-14 07:02:00,50.3,48.4,29.98,South,175,3.0,13.0,93,0.00,,,0.00,Wunderground v.1.15,2013-01-14 12:02:00,
2013-01-14 07:03:00,50.3,48.4,29.98,SSW,192,5.0,13.0,93,0.00,,,0.00,Wunderground v.1.15,2013-01-14 12:03:00,
2013-01-14 07:06:00,50.3,48.4,29.99,SW,217,7.0,13.0,93,0.00,,,0.00,Wunderground v.1.15,2013-01-14 12:06:00,
2013-01-14 07:07:00,50.4,48.5,29.98,SSW,200,4.0,7.0,93,0.00,,,0.00,Wunderground v.1.15,2013-01-14 12:07:00,
2013-01-14 07:08:00,50.4,48.5,29.98,South,172,2.0,7.0,93,0.00,,,0.00,Wunderground v.1.15,2013-01-14 12:08:00,
2013-01-14 07:12:00,50.5,48.6,29.97,SE,128,3.0,11.0,93,0.00,,,0.00,Wunderground v.1.15,2013-01-14 12:12:00,
2013-01-14 07:13:00,50.5,48.6,29.96,South,172,4.0,11.0,93,0.00,,,0.00,Wunderground v.1.15,2013-01-14 12:13:00,
2013-01-14 07:17:00,50.6,48.4,29.95,SE,136,3.0,7.0,92,0.00,,,0.00,Wunderground v.1.15,2013-01-14 12:17:00,
2013-01-14 07:18:00,50.6,48.4,29.96,SE,128,2.0,7.0,92,0.00,,,0.00,Wunderground v.1.15,2013-01-14 12:18:00,
2013-01-14 07:19:00,50.7,48.5,29.95,SSE,158,3.0,9.0,92,0.00,,,0.00,Wunderground v.1.15,2013-01-14 12:19:00,
2013-01-14 07:22:00,50.8,48.6,29.94,South,173,4.0,11.0,92,0.00,,,0.00,Wunderground v.1.15,2013-01-14 12:22:00,
2013-01-14 07:23:00,50.9,48.7,29.95,SSE,165,6.0,11.0,92,0.00,,,0.00,Wunderground v.1.15,2013-01-14 12:23:00,
2013-01-14 07:24:00,50.9,48.9,29.95,South,182,6.0,11.0,93,0.00,,,0.00,Wunderground v.1.15,2013-01-14 12:24:00,
2013-01-14 07:28:00,50.9,48.9,29.98,South,178,4.0,7.0,93,0.00,,,0.00,Wunderground v.1.15,2013-01-14 12:28:00,
2013-01-14 07:29:00,50.9,48.9,29.97,SE,128,3.0,7.0,93,0.00,,,0.00,Wunderground v.1.15,2013-01-14 12:29:00,
2013-01-14 07:33:00,51.1,49.1,29.96,SSE,148,6.0,12.0,93,0.00,,,0.00,Wunderground v.1.15,2013-01-14 12:33:00,
2013-01-14 07:34:00,51.1,49.1,29.96,SE,134,5.0,12.0,93,0.00,,,0.00,Wunderground v.1.15,2013-01-14 12:34:00,
2013-01-14 07:38:00,51.2,49.2,29.95,South,178,10.0,10.0,93,0.00,,,0.00,Wunderground v.1.15,2013-01-14 12:38:00,
2013-01-14 07:39:00,51.2,49.2,29.94,SSE,167,2.0,10.0,93,0.00,,,0.00,Wunderground v.1.15,2013-01-14 12:39:00,
2013-01-14 07:40:00,51.2,49.2,29.94,SE,130,6.0,13.0,93,0.00,,,0.00,Wunderground v.1.15,2013-01-14 12:40:00,
2013-01-14 07:43:00,51.3,49.1,29.97,WNW,289,4.0,13.0,92,0.00,,,0.00,Wunderground v.1.15,2013-01-14 12:43:00,
2013-01-14 07:45:00,51.4,49.2,29.97,West,275,7.0,13.0,92,0.00,,,0.00,Wunderground v.1.15,2013-01-14 12:45:00,
2013-01-14 07:48:00,51.5,49.3,30.02,NW,316,3.0,7.0,92,0.00,,,0.00,Wunderground v.1.15,2013-01-14 12:48:00,
2013-01-14 07:50:00,51.5,49.5,30.01,WSW,254,4.0,8.0,93,0.00,,,0.00,Wunderground v.1.15,2013-01-14 12:50:00,
2013-01-14 07:53:00,51.5,49.5,30.02,WNW,291,4.0,9.0,93,0.00,,,0.00,Wunderground v.1.15,2013-01-14 12:53:00,
2013-01-14 07:55:00,51.4,49.4,30.02,WSW,252,7.0,11.0,93,0.00,,,0.00,Wunderground v.1.15,2013-01-14 12:55:00,
2013-01-14 07:58:00,51.3,49.1,30.02,WNW,298,10.0,10.0,92,0.00,,,0.00,Wunderground v.1.15,2013-01-14 12:58:00,
2013-01-14 08:00:00,51.2,49.0,30.02,West,279,2.0,11.0,92,0.00,,,0.00,Wunderground v.1.15,2013-01-14 13:00:00,
2013-01-14 08:01:00,51.2,49.0,30.01,WNW,285,5.0,11.0,92,0.00,,,0.00,Wunderground v.1.15,2013-01-14 13:01:00,
2013-01-14 08:04:00,51.1,48.9,30.02,West,262,12.0,12.0,92,0.00,,,0.00,Wunderground v.1.15,2013-01-14 13:04:00,
2013-01-14 08:05:00,51.1,48.9,30.02,WSW,247,7.0,12.0,92,0.00,,,0.00,Wunderground v.1.15,2013-01-14 13:05:00,
2013-01-14 08:06:00,51.1,48.9,30.02,WSW,253,5.0,10.0,92,0.00,,,0.00,Wunderground v.1.15,2013-01-14 13:06:00,
2013-01-14 08:10:00,51.1,48.9,30.02,West,273,4.0,10.0,92,0.00,,,0.00,Wunderground v.1.15,2013-01-14 13:10:00,
2013-01-14 08:11:00,51.1,48.9,30.02,SSW,213,5.0,10.0,92,0.00,,,0.00,Wunderground v.1.15,2013-01-14 13:11:00,
2013-01-14 08:15:00,51.2,49.0,30.01,SW,236,10.0,14.0,92,0.00,,,0.00,Wunderground v.1.15,2013-01-14 13:15:00,
2013-01-14 08:16:00,51.2,49.0,30.01,WSW,242,4.0,14.0,92,0.00,,,0.00,Wunderground v.1.15,2013-01-14 13:16:00,
2013-01-14 08:20:00,51.1,48.9,30.03,West,261,2.0,12.0,92,0.00,,,0.00,Wunderground v.1.15,2013-01-14 13:20:00,
2013-01-14 08:21:00,51.1,48.9,30.03,SW,228,8.0,12.0,92,0.00,,,0.00,Wunderground v.1.15,2013-01-14 13:21:00,
2013-01-14 08:23:00,51.0,48.8,30.03,WSW,249,6.0,12.0,92,0.00,,,0.00,Wunderground v.1.15,2013-01-14 13:23:00,
2013-01-14 08:25:00,51.0,48.8,30.02,WSW,239,4.0,12.0,92,0.00,,,0.00,Wunderground v.1.15,2013-01-14 13:25:00,
2013-01-14 08:26:00,51.0,48.8,30.02,West,268,2.0,9.0,92,0.00,,,0.00,Wunderground v.1.15,2013-01-14 13:26:00,
2013-01-14 08:27:00,50.9,48.7,30.02,SSW,209,9.0,9.0,92,0.00,,,0.00,Wunderground v.1.15,2013-01-14 13:27:00,
2013-01-14 08:28:00,50.9,48.7,30.02,South,171,2.0,10.0,92,0.00,,,0.00,Wunderground v.1.15,2013-01-14 13:28:00,
2013-01-14 08:32:00,50.8,48.6,30.01,SSW,193,3.0,11.0,92,0.00,,,0.00,Wunderground v.1.15,2013-01-14 13:32:00,
2013-01-14 08:33:00,50.8,48.6,30.01,SSE,149,7.0,11.0,92,0.00,,,0.00,Wunderground v.1.15,2013-01-14 13:33:00,
2013-01-14 08:37:00,50.7,48.5,30.01,SE,136,5.0,9.0,92,0.00,,,0.00,Wunderground v.1.15,2013-01-14 13:37:00,
2013-01-14 08:38:00,50.7,48.5,30.03,West,261,9.0,9.0,92,0.00,,,0.00,Wunderground v.1.15,2013-01-14 13:38:00,
2013-01-14 08:42:00,50.8,48.8,30.03,WSW,239,3.0,10.0,93,0.00,,,0.00,Wunderground v.1.15,2013-01-14 13:42:00,
2013-01-14 08:43:00,50.7,48.5,30.03,SW,235,9.0,10.0,92,0.00,,,0.00,Wunderground v.1.15,2013-01-14 13:43:00,
2013-01-14 08:44:00,50.8,48.8,30.03,WSW,247,7.0,10.0,93,0.00,,,0.00,Wunderground v.1.15,2013-01-14 13:44:00,
2013-01-14 08:48:00,50.8,48.8,30.04,West,259,6.0,9.0,93,0.00,,,0.00,Wunderground v.1.15,2013-01-14 13:48:00,
2013-01-14 08:49:00,50.9,48.9,30.04,WSW,255,6.0,9.0,93,0.00,,,0.00,Wunderground v.1.15,2013-01-14 13:49:00,
2013-01-14 08:53:00,50.9,48.7,30.04,WSW,242,2.0,11.0,92,0.00,,,0.00,Wunderground v.1.15,2013-01-14 13:53:00,
2013-01-14 08:54:00,50.9,48.7,30.05,SSW,202,3.0,11.0,92,0.00,,,0.00,Wunderground v.1.15,2013-01-14 13:54:00,
2013-01-14 08:58:00,51.0,48.8,30.04,West,273,5.0,9.0,92,0.00,,,0.00,Wunderground v.1.15,2013-01-14 13:58:00,
2013-01-14 08:59:00,51.0,48.8,30.04,WSW,249,8.0,9.0,92,0.00,,,0.00,Wunderground v.1.15,2013-01-14 13:59:00,
2013-01-14 09:03:00,51.1,48.9,30.04,West,261,3.0,10.0,92,0.00,,,0.00,Wunderground v.1.15,2013-01-14 14:03:00,
2013-01-14 09:04:00,51.1,48.9,30.04,West,261,1.0,10.0,92,0.00,,,0.00,Wunderground v.1.15,2013-01-14 14:04:00,
2013-01-14 09:09:00,51.2,49.0,30.05,WSW,245,2.0,13.0,92,0.00,,,0.00,Wunderground v.1.15,2013-01-14 14:09:00,
2013-01-14 09:10:00,51.2,49.0,30.05,SW,234,13.0,13.0,92,0.00,,,0.00,Wunderground v.1.15,2013-01-14 14:10:00,
2013-01-14 09:14:00,51.3,49.1,30.05,West,265,4.0,14.0,92,0.00,,,0.00,Wunderground v.1.15,2013-01-14 14:14:00,
2013-01-14 09:15:00,51.3,49.1,30.05,West,265,1.0,14.0,92,0.00,,,0.00,Wunderground v.1.15,2013-01-14 14:15:00,
2013-01-14 09:19:00,51.4,49.2,30.05,WSW,257,3.0,10.0,92,0.00,,,0.00,Wunderground v.1.15,2013-01-14 14:19:00,
2013-01-14 09:20:00,51.4,49.2,30.05,SW,232,4.0,10.0,92,0.00,,,0.00,Wunderground v.1.15,2013-01-14 14:20:00,
2013-01-14 09:24:00,51.5,49.3,30.05,SW,223,8.0,10.0,92,0.00,,,0.00,Wunderground v.1.15,2013-01-14 14:24:00,
2013-01-14 09:25:00,51.6,49.4,30.05,WSW,239,8.0,10.0,92,0.00,,,0.00,Wunderground v.1.15,2013-01-14 14:25:00,
2013-01-14 09:29:00,51.7,49.5,30.06,WSW,258,6.0,9.0,92,0.00,,,0.00,Wunderground v.1.15,2013-01-14 14:29:00,
2013-01-14 09:30:00,51.8,49.5,30.06,WSW,256,5.0,9.0,92,0.00,,,0.00,Wunderground v.1.15,2013-01-14 14:30:00,
2013-01-14 09:31:00,51.8,49.5,30.06,WSW,250,9.0,9.0,92,0.00,,,0.00,Wunderground v.1.15,2013-01-14 14:31:00,
2013-01-14 09:34:00,51.9,49.6,30.07,WSW,248,10.0,13.0,92,0.00,,,0.00,Wunderground v.1.15,2013-01-14 14:34:00,
2013-01-14 09:35:00,51.9,49.6,30.07,SW,221,5.0,13.0,92,0.00,,,0.00,Wunderground v.1.15,2013-01-14 14:35:00,
2013-01-14 09:36:00,51.9,49.6,30.07,SW,227,8.0,9.0,92,0.00,,,0.00,Wunderground v.1.15,2013-01-14 14:36:00,
2013-01-14 09:39:00,52.0,49.7,30.07,SW,231,4.0,13.0,92,0.00,,,0.00,Wunderground v.1.15,2013-01-14 14:39:00,
2013-01-14 09:40:00,52.0,49.7,30.07,WSW,238,7.0,13.0,92,0.00,,,0.00,Wunderground v.1.15,2013-01-14 14:40:00,
2013-01-14 09:41:00,52.0,49.7,30.07,WSW,248,4.0,13.0,92,0.00,,,0.00,Wunderground v.1.15,2013-01-14 14:41:00,
2013-01-14 09:45:00,52.0,49.7,30.07,West,261,4.0,13.0,92,0.00,,,0.00,Wunderground v.1.15,2013-01-14 14:45:00,
2013-01-14 09:46:00,52.0,49.7,30.07,WNW,301,4.0,13.0,92,0.00,,,0.00,Wunderground v.1.15,2013-01-14 14:46:00,
2013-01-14 09:51:00,52.1,49.8,30.07,WSW,237,6.0,11.0,92,0.00,,,0.00,Wunderground v.1.15,2013-01-14 14:51:00,
2013-01-14 09:56:00,52.1,49.6,30.07,SSW,199,3.0,4.0,91,0.00,,,0.00,Wunderground v.1.15,2013-01-14 14:56:00,
2013-01-14 09:57:00,52.2,49.7,30.07,West,262,6.0,6.0,91,0.00,,,0.00,Wunderground v.1.15,2013-01-14 14:57:00,
2013-01-14 10:01:00,52.2,49.7,30.07,West,262,6.0,9.0,91,0.00,,,0.00,Wunderground v.1.15,2013-01-14 15:01:00,
2013-01-14 10:02:00,52.2,49.7,30.08,WSW,251,4.0,9.0,91,0.00,,,0.00,Wunderground v.1.15,2013-01-14 15:02:00,
2013-01-14 10:06:00,52.2,49.7,30.08,SSW,208,6.0,10.0,91,0.00,,,0.00,Wunderground v.1.15,2013-01-14 15:06:00,
2013-01-14 10:07:00,52.3,49.8,30.08,WNW,286,4.0,10.0,91,0.00,,,0.00,Wunderground v.1.15,2013-01-14 15:07:00,
2013-01-14 10:08:00,52.3,49.8,30.08,SW,227,5.0,10.0,91,0.00,,,0.00,Wunderground v.1.15,2013-01-14 15:08:00,
2013-01-14 10:11:00,52.3,49.8,30.08,WSW,243,6.0,10.0,91,0.00,,,0.00,Wunderground v.1.15,2013-01-14 15:11:00,
2013-01-14 10:12:00,52.3,49.8,30.08,SW,229,8.0,10.0,91,0.00,,,0.00,Wunderground v.1.15,2013-01-14 15:12:00,
2013-01-14 10:13:00,52.3,49.8,30.08,West,270,2.0,10.0,91,0.00,,,0.00,Wunderground v.1.15,2013-01-14 15:13:00,
2013-01-14 10:17:00,52.4,49.8,30.08,WSW,243,2.0,7.0,91,0.00,,,0.00,Wunderground v.1.15,2013-01-14 15:17:00,
2013-01-14 10:18:00,52.4,49.8,30.08,West,275,5.0,7.0,91,0.00,,,0.00,Wunderground v.1.15,2013-01-14 15:18:00,
2013-01-14 10:22:00,52.4,49.8,30.08,SW,231,3.0,10.0,91,0.00,,,0.00,Wunderground v.1.15,2013-01-14 15:22:00,
2013-01-14 10:23:00,52.4,49.8,30.08,WSW,238,6.0,10.0,91,0.00,,,0.00,Wunderground v.1.15,2013-01-14 15:23:00,
2013-01-14 10:27:00,52.4,49.8,30.08,WSW,258,1.0,6.0,91,0.00,,,0.00,Wunderground v.1.15,2013-01-14 15:27:00,
2013-01-14 10:28:00,52.4,49.8,30.08,West,277,3.0,6.0,91,0.00,,,0.00,Wunderground v.1.15,2013-01-14 15:28:00,
2013-01-14 10:32:00,52.5,49.9,30.08,WSW,250,2.0,8.0,91,0.00,,,0.00,Wunderground v.1.15,2013-01-14 15:32:00,
2013-01-14 10:33:00,52.5,49.9,30.08,West,268,2.0,8.0,91,0.00,,,0.00,Wunderground v.1.15,2013-01-14 15:33:00,
2013-01-14 10:38:00,52.6,49.8,30.08,NNW,348,6.0,8.0,90,0.00,,,0.00,Wunderground v.1.15,2013-01-14 15:38:00,
2013-01-14 10:39:00,52.6,49.8,30.08,West,265,2.0,11.0,90,0.00,,,0.00,Wunderground v.1.15,2013-01-14 15:39:00,
2013-01-14 10:43:00,52.7,49.5,30.08,SW,227,9.0,12.0,89,0.00,,,0.00,Wunderground v.1.15,2013-01-14 15:43:00,
2013-01-14 10:44:00,52.7,49.5,30.08,WNW,286,6.0,12.0,89,0.00,,,0.00,Wunderground v.1.15,2013-01-14 15:44:00,
2013-01-14 10:45:00,52.8,49.6,30.08,NNW,329,2.0,12.0,89,0.00,,,0.00,Wunderground v.1.15,2013-01-14 15:45:00,
2013-01-14 10:48:00,52.8,49.6,30.08,West,263,2.0,8.0,89,0.00,,,0.00,Wunderground v.1.15,2013-01-14 15:48:00,
2013-01-14 10:49:00,52.8,49.6,30.08,West,276,4.0,8.0,89,0.00,,,0.00,Wunderground v.1.15,2013-01-14 15:49:00,
2013-01-14 10:50:00,52.8,49.3,30.08,West,276,3.0,14.0,88,0.00,,,0.00,Wunderground v.1.15,2013-01-14 15:50:00,
2013-01-14 10:53:00,52.8,49.3,30.08,West,265,2.0,14.0,88,0.00,,,0.00,Wunderground v.1.15,2013-01-14 15:53:00,
2013-01-14 10:54:00,52.8,49.3,30.08,WSW,247,4.0,14.0,88,0.00,,,0.00,Wunderground v.1.15,2013-01-14 15:54:00,
2013-01-14 10:55:00,52.8,49.3,30.08,WSW,254,9.0,14.0,88,0.00,,,0.00,Wunderground v.1.15,2013-01-14 15:55:00,
2013-01-14 10:59:00,52.8,49.3,30.08,NW,316,7.0,8.0,88,0.00,,,0.00,Wunderground v.1.15,2013-01-14 15:59:00,
2013-01-14 11:00:00,52.8,49.0,30.08,West,264,2.0,8.0,87,0.00,,,0.00,Wunderground v.1.15,2013-01-14 16:00:00,
2013-01-14 11:04:00,52.8,49.0,30.08,West,266,2.0,8.0,87,0.00,,,0.00,Wunderground v.1.15,2013-01-14 16:04:00,
2013-01-14 11:05:00,52.9,49.1,30.08,WSW,242,3.0,8.0,87,0.00,,,0.00,Wunderground v.1.15,2013-01-14 16:05:00,
2013-01-14 11:06:00,52.8,49.0,30.08,WNW,294,3.0,8.0,87,0.00,,,0.00,Wunderground v.1.15,2013-01-14 16:06:00,
2013-01-14 11:09:00,52.9,49.1,30.08,WSW,246,3.0,7.0,87,0.00,,,0.00,Wunderground v.1.15,2013-01-14 16:09:00,
2013-01-14 11:10:00,52.9,49.1,30.08,South,189,4.0,7.0,87,0.00,,,0.00,Wunderground v.1.15,2013-01-14 16:10:00,
2013-01-14 11:11:00,53.0,49.2,30.08,WSW,240,3.0,7.0,87,0.00,,,0.00,Wunderground v.1.15,2013-01-14 16:11:00,
2013-01-14 11:15:00,53.1,49.3,30.07,WSW,240,2.0,7.0,87,0.00,,,0.00,Wunderground v.1.15,2013-01-14 16:15:00,
2013-01-14 11:16:00,53.1,49.3,30.07,WSW,251,6.0,6.0,87,0.00,,,0.00,Wunderground v.1.15,2013-01-14 16:16:00,
2013-01-14 11:20:00,53.3,49.5,30.07,SW,217,1.0,8.0,87,0.00,,,0.00,Wunderground v.1.15,2013-01-14 16:20:00,
2013-01-14 11:21:00,53.5,49.7,30.07,SW,223,3.0,8.0,87,0.00,,,0.00,Wunderground v.1.15,2013-01-14 16:21:00,
2013-01-14 11:22:00,53.6,49.5,30.07,West,271,1.0,8.0,86,0.00,,,0.00,Wunderground v.1.15,2013-01-14 16:22:00,
2013-01-14 11:25:00,53.7,49.6,30.06,South,186,3.0,9.0,86,0.00,,,0.00,Wunderground v.1.15,2013-01-14 16:25:00,
2013-01-14 11:26:00,53.7,49.6,30.06,WSW,251,4.0,9.0,86,0.00,,,0.00,Wunderground v.1.15,2013-01-14 16:26:00,
2013-01-14 11:28:00,54.0,49.6,30.06,WSW,253,3.0,8.0,85,0.00,,,0.00,Wunderground v.1.15,2013-01-14 16:28:00,
2013-01-14 11:31:00,54.1,49.4,30.06,West,265,7.0,8.0,84,0.00,,,0.00,Wunderground v.1.15,2013-01-14 16:31:00,
2013-01-14 11:33:00,54.2,49.1,30.06,SSW,202,5.0,9.0,83,0.00,,,0.00,Wunderground v.1.15,2013-01-14 16:33:00,
2013-01-14 11:36:00,54.2,49.1,30.06,WNW,286,3.0,9.0,83,0.00,,,0.00,Wunderground v.1.15,2013-01-14 16:36:00,
2013-01-14 11:37:00,54.2,49.1,30.06,South,189,1.0,5.0,83,0.00,,,0.00,Wunderground v.1.15,2013-01-14 16:37:00,
2013-01-14 11:39:00,54.3,49.2,30.06,West,276,3.0,5.0,83,0.00,,,0.00,Wunderground v.1.15,2013-01-14 16:39:00,
2013-01-14 11:41:00,54.4,49.3,30.06,NW,316,3.0,6.0,83,0.00,,,0.00,Wunderground v.1.15,2013-01-14 16:41:00,
2013-01-14 11:42:00,54.4,49.0,30.06,WSW,255,5.0,6.0,82,0.00,,,0.00,Wunderground v.1.15,2013-01-14 16:42:00,
2013-01-14 11:45:00,54.5,49.1,30.06,NW,318,4.0,6.0,82,0.00,,,0.00,Wunderground v.1.15,2013-01-14 16:45:00,
2013-01-14 11:46:00,54.5,49.1,30.06,West,273,2.0,4.0,82,0.00,,,0.00,Wunderground v.1.15,2013-01-14 16:46:00,
2013-01-14 11:47:00,54.5,48.8,30.06,WSW,251,4.0,9.0,81,0.00,,,0.00,Wunderground v.1.15,2013-01-14 16:47:00,
2013-01-14 11:51:00,54.5,48.8,30.06,SSW,194,2.0,9.0,81,0.00,,,0.00,Wunderground v.1.15,2013-01-14 16:51:00,
2013-01-14 11:52:00,54.5,49.1,30.06,SSW,211,4.0,9.0,82,0.00,,,0.00,Wunderground v.1.15,2013-01-14 16:52:00,
2013-01-14 11:53:00,54.5,49.1,30.06,SSW,211,1.0,9.0,82,0.00,,,0.00,Wunderground v.1.15,2013-01-14 16:53:00,
2013-01-14 11:56:00,54.6,49.2,30.06,SW,236,2.0,9.0,82,0.00,,,0.00,Wunderground v.1.15,2013-01-14 16:56:00,
2013-01-14 11:57:00,54.6,49.2,30.06,SW,236,0.0,3.0,82,0.00,,,0.00,Wunderground v.1.15,2013-01-14 16:57:00,
2013-01-14 11:58:00,54.6,49.2,30.06,SW,236,1.0,3.0,82,0.00,,,0.00,Wunderground v.1.15,2013-01-14 16:58:00,
2013-01-14 12:02:00,54.8,49.1,30.06,SW,228,0.0,4.0,81,0.00,,,0.00,Wunderground v.1.15,2013-01-14 17:02:00,
2013-01-14 12:03:00,54.8,49.4,30.06,SW,229,2.0,4.0,82,0.00,,,0.00,Wunderground v.1.15,2013-01-14 17:03:00,
2013-01-14 12:07:00,54.9,49.5,30.06,SW,229,0.0,2.0,82,0.00,,,0.00,Wunderground v.1.15,2013-01-14 17:07:00,
2013-01-14 12:08:00,55.0,49.6,30.06,SW,229,0.0,2.0,82,0.00,,,0.00,Wunderground v.1.15,2013-01-14 17:08:00,
2013-01-14 12:09:00,55.1,49.4,30.06,SW,229,2.0,2.0,81,0.00,,,0.00,Wunderground v.1.15,2013-01-14 17:09:00,
2013-01-14 12:12:00,55.3,49.2,30.06,WSW,244,0.0,4.0,80,0.00,,,0.00,Wunderground v.1.15,2013-01-14 17:12:00,
2013-01-14 12:13:00,55.3,49.2,30.06,WSW,244,0.0,4.0,80,0.00,,,0.00,Wunderground v.1.15,2013-01-14 17:13:00,
2013-01-14 12:14:00,55.4,49.7,30.06,West,272,4.0,4.0,81,0.00,,,0.00,Wunderground v.1.15,2013-01-14 17:14:00,
2013-01-14 12:17:00,55.5,49.4,30.05,West,277,5.0,5.0,80,0.00,,,0.00,Wunderground v.1.15,2013-01-14 17:17:00,
2013-01-14 12:18:00,55.4,49.3,30.05,WNW,298,5.0,5.0,80,0.00,,,0.00,Wunderground v.1.15,2013-01-14 17:18:00,
2013-01-14 12:19:00,55.4,48.7,30.05,WSW,240,5.0,9.0,78,0.00,,,0.00,Wunderground v.1.15,2013-01-14 17:19:00,
2013-01-14 12:23:00,55.5,48.4,30.05,SW,231,3.0,10.0,77,0.00,,,0.00,Wunderground v.1.15,2013-01-14 17:23:00,
2013-01-14 12:24:00,55.6,48.5,30.05,West,259,2.0,10.0,77,0.00,,,0.00,Wunderground v.1.15,2013-01-14 17:24:00,
2013-01-14 12:28:00,55.9,48.1,30.05,WSW,248,5.0,10.0,75,0.00,,,0.00,Wunderground v.1.15,2013-01-14 17:28:00,
2013-01-14 12:29:00,56.1,48.3,30.05,West,275,3.0,10.0,75,0.00,,,0.00,Wunderground v.1.15,2013-01-14 17:29:00,
2013-01-14 12:33:00,56.6,48.4,30.05,West,278,4.0,10.0,74,0.00,,,0.00,Wunderground v.1.15,2013-01-14 17:33:00,
2013-01-14 12:34:00,56.6,48.4,30.05,WNW,294,6.0,10.0,74,0.00,,,0.00,Wunderground v.1.15,2013-01-14 17:34:00,
2013-01-14 12:38:00,56.9,48.0,30.06,NW,308,3.0,12.0,72,0.00,,,0.00,Wunderground v.1.15,2013-01-14 17:38:00,
2013-01-14 12:39:00,56.9,47.2,30.06,WNW,302,4.0,12.0,70,0.00,,,0.00,Wunderground v.1.15,2013-01-14 17:39:00,
2013-01-14 12:44:00,57.2,46.7,30.06,West,275,12.0,12.0,68,0.00,,,0.00,Wunderground v.1.15,2013-01-14 17:44:00,
2013-01-14 12:49:00,57.1,45.8,30.06,West,259,8.0,11.0,66,0.00,,,0.00,Wunderground v.1.15,2013-01-14 17:49:00,
2013-01-14 12:50:00,57.2,45.9,30.06,WSW,243,7.0,11.0,66,0.00,,,0.00,Wunderground v.1.15,2013-01-14 17:50:00,
2013-01-14 12:54:00,57.0,44.9,30.06,WSW,250,9.0,13.0,64,0.00,,,0.00,Wunderground v.1.15,2013-01-14 17:54:00,
2013-01-14 12:55:00,57.0,44.9,30.06,West,279,5.0,18.0,64,0.00,,,0.00,Wunderground v.1.15,2013-01-14 17:55:00,
2013-01-14 12:59:00,56.9,44.8,30.07,WSW,254,13.0,19.0,64,0.00,,,0.00,Wunderground v.1.15,2013-01-14 17:59:00,
2013-01-14 13:00:00,56.9,44.8,30.07,West,268,6.0,19.0,64,0.00,,,0.00,Wunderground v.1.15,2013-01-14 18:00:00,
2013-01-14 13:01:00,57.0,44.9,30.07,WNW,295,5.0,19.0,64,0.00,,,0.00,Wunderground v.1.15,2013-01-14 18:01:00,
2013-01-14 13:04:00,56.9,44.4,30.07,NW,309,10.0,20.0,63,0.00,,,0.00,Wunderground v.1.15,2013-01-14 18:04:00,
2013-01-14 13:05:00,57.0,44.5,30.07,North,360,13.0,20.0,63,0.00,,,0.00,Wunderground v.1.15,2013-01-14 18:05:00,
2013-01-14 13:06:00,57.0,44.5,30.07,West,269,5.0,20.0,63,0.00,,,0.00,Wunderground v.1.15,2013-01-14 18:06:00,
2013-01-14 13:10:00,57.0,44.9,30.07,West,281,9.0,19.0,64,0.00,,,0.00,Wunderground v.1.15,2013-01-14 18:10:00,
2013-01-14 13:11:00,56.8,44.3,30.07,West,264,9.0,19.0,63,0.00,,,0.00,Wunderground v.1.15,2013-01-14 18:11:00,
2013-01-14 13:15:00,56.9,44.8,30.07,West,261,13.0,19.0,64,0.00,,,0.00,Wunderground v.1.15,2013-01-14 18:15:00,
2013-01-14 13:16:00,56.8,44.7,30.07,WSW,252,11.0,11.0,64,0.00,,,0.00,Wunderground v.1.15,2013-01-14 18:16:00,
2013-01-14 13:21:00,57.1,44.6,30.07,WNW,299,11.0,12.0,63,0.00,,,0.00,Wunderground v.1.15,2013-01-14 18:21:00,
2013-01-14 13:26:00,57.1,44.2,30.08,WSW,248,10.0,10.0,62,0.00,,,0.00,Wunderground v.1.15,2013-01-14 18:26:00,
2013-01-14 13:27:00,57.1,43.3,30.07,SW,214,8.0,19.0,60,0.00,,,0.00,Wunderground v.1.15,2013-01-14 18:27:00,
2013-01-14 13:31:00,56.9,42.7,30.07,WSW,257,10.0,19.0,59,0.00,,,0.00,Wunderground v.1.15,2013-01-14 18:31:00,
2013-01-14 13:32:00,56.8,42.2,30.07,WSW,246,8.0,19.0,58,0.00,,,0.00,Wunderground v.1.15,2013-01-14 18:32:00,
2013-01-14 13:33:00,56.8,42.6,30.07,NW,311,18.0,19.0,59,0.00,,,0.00,Wunderground v.1.15,2013-01-14 18:33:00,
2013-01-14 13:36:00,56.7,42.1,30.08,NW,304,7.0,9.0,58,0.00,,,0.00,Wunderground v.1.15,2013-01-14 18:36:00,
2013-01-14 13:37:00,56.7,42.5,30.08,NNW,342,6.0,9.0,59,0.00,,,0.00,Wunderground v.1.15,2013-01-14 18:37:00,
2013-01-14 13:38:00,56.8,42.2,30.08,WNW,282,5.0,9.0,58,0.00,,,0.00,Wunderground v.1.15,2013-01-14 18:38:00,
2013-01-14 13:42:00,56.8,41.7,30.09,WNW,282,3.0,16.0,57,0.00,,,0.00,Wunderground v.1.15,2013-01-14 18:42:00,
2013-01-14 13:44:00,56.8,41.3,30.08,West,268,11.0,18.0,56,0.00,,,0.00,Wunderground v.1.15,2013-01-14 18:44:00,
2013-01-14 13:47:00,56.6,41.5,30.09,WNW,294,13.0,13.0,57,0.00,,,0.00,Wunderground v.1.15,2013-01-14 18:47:00,
2013-01-14 13:49:00,56.6,41.1,30.09,WNW,303,4.0,16.0,56,0.00,,,0.00,Wunderground v.1.15,2013-01-14 18:49:00,
2013-01-14 13:52:00,56.6,41.5,30.09,NW,325,9.0,16.0,57,0.00,,,0.00,Wunderground v.1.15,2013-01-14 18:52:00,
2013-01-14 13:54:00,56.6,42.0,30.09,WNW,303,4.0,16.0,58,0.00,,,0.00,Wunderground v.1.15,2013-01-14 18:54:00,
2013-01-14 13:57:00,56.7,41.2,30.09,NW,323,11.0,15.0,56,0.00,,,0.00,Wunderground v.1.15,2013-01-14 18:57:00,
2013-01-14 13:59:00,56.5,41.0,30.09,West,279,9.0,20.0,56,0.00,,,0.00,Wunderground v.1.15,2013-01-14 18:59:00,
2013-01-14 14:02:00,56.5,41.4,30.10,WNW,286,3.0,20.0,57,0.00,,,0.00,Wunderground v.1.15,2013-01-14 19:02:00,
2013-01-14 14:04:00,56.6,41.5,30.10,WSW,253,3.0,20.0,57,0.00,,,0.00,Wunderground v.1.15,2013-01-14 19:04:00,
2013-01-14 14:07:00,56.5,41.9,30.09,West,262,4.0,11.0,58,0.00,,,0.00,Wunderground v.1.15,2013-01-14 19:07:00,
2013-01-14 14:08:00,56.5,41.9,30.09,West,262,2.0,11.0,58,0.00,,,0.00,Wunderground v.1.15,2013-01-14 19:08:00,
2013-01-14 14:09:00,56.4,41.8,30.09,West,263,3.0,11.0,58,0.00,,,0.00,Wunderground v.1.15,2013-01-14 19:09:00,
2013-01-14 14:11:00,56.4,41.8,30.09,WSW,256,3.0,14.0,58,0.00,,,0.00,Wunderground v.1.15,2013-01-14 19:11:00,
2013-01-14 14:13:00,56.3,41.7,30.10,WNW,301,7.0,14.0,58,0.00,,,0.00,Wunderground v.1.15,2013-01-14 19:13:00,
2013-01-14 14:14:00,56.3,41.7,30.10,WNW,301,4.0,14.0,58,0.00,,,0.00,Wunderground v.1.15,2013-01-14 19:14:00,
2013-01-14 14:16:00,56.2,41.2,30.10,WSW,257,12.0,12.0,57,0.00,,,0.00,Wunderground v.1.15,2013-01-14 19:16:00,
2013-01-14 14:18:00,56.0,40.5,30.10,North,355,8.0,12.0,56,0.00,,,0.00,Wunderground v.1.15,2013-01-14 19:18:00,
2013-01-14 14:20:00,55.9,40.4,30.10,NW,317,8.0,12.0,56,0.00,,,0.00,Wunderground v.1.15,2013-01-14 19:20:00,
2013-01-14 14:21:00,55.9,40.4,30.10,WSW,244,7.0,16.0,56,0.00,,,0.00,Wunderground v.1.15,2013-01-14 19:21:00,
2013-01-14 14:23:00,55.9,40.4,30.11,WNW,288,10.0,16.0,56,0.00,,,0.00,Wunderground v.1.15,2013-01-14 19:23:00,
2013-01-14 14:25:00,55.9,39.5,30.10,West,268,14.0,16.0,54,0.00,,,0.00,Wunderground v.1.15,2013-01-14 19:25:00,
2013-01-14 14:26:00,55.9,39.5,30.11,WNW,292,10.0,10.0,54,0.00,,,0.00,Wunderground v.1.15,2013-01-14 19:26:00,
2013-01-14 14:28:00,55.7,39.3,30.11,NW,321,8.0,14.0,54,0.00,,,0.00,Wunderground v.1.15,2013-01-14 19:28:00,
2013-01-14 14:30:00,55.7,39.3,30.11,NE,39,6.0,14.0,54,0.00,,,0.00,Wunderground v.1.15,2013-01-14 19:30:00,
2013-01-14 14:32:00,55.7,39.3,30.12,NW,308,8.0,14.0,54,0.00,,,0.00,Wunderground v.1.15,2013-01-14 19:32:00,
2013-01-14 14:33:00,55.5,39.1,30.12,WNW,299,3.0,14.0,54,0.00,,,0.00,Wunderground v.1.15,2013-01-14 19:33:00,
2013-01-14 14:34:00,55.5,39.1,30.12,NNW,329,3.0,14.0,54,0.00,,,0.00,Wunderground v.1.15,2013-01-14 19:34:00,
2013-01-14 14:35:00,55.4,39.0,30.12,West,273,4.0,14.0,54,0.00,,,0.00,Wunderground v.1.15,2013-01-14 19:35:00,
2013-01-14 14:37:00,55.1,38.3,30.13,NW,305,6.0,19.0,53,0.00,,,0.00,Wunderground v.1.15,2013-01-14 19:37:00,
2013-01-14 14:39:00,55.0,38.2,30.13,NW,321,5.0,19.0,53,0.00,,,0.00,Wunderground v.1.15,2013-01-14 19:39:00,
2013-01-14 14:40:00,54.9,38.6,30.13,NW,311,9.0,19.0,54,0.00,,,0.00,Wunderground v.1.15,2013-01-14 19:40:00,
2013-01-14 14:42:00,54.8,38.5,30.13,West,266,4.0,19.0,54,0.00,,,0.00,Wunderground v.1.15,2013-01-14 19:42:00,
2013-01-14 14:44:00,54.8,38.9,30.13,West,275,11.0,19.0,55,0.00,,,0.00,Wunderground v.1.15,2013-01-14 19:44:00,
2013-01-14 14:45:00,54.7,39.3,30.13,WNW,302,9.0,19.0,56,0.00,,,0.00,Wunderground v.1.15,2013-01-14 19:45:00,
2013-01-14 14:48:00,54.7,39.3,30.13,NW,304,6.0,11.0,56,0.00,,,0.00,Wunderground v.1.15,2013-01-14 19:48:00,
2013-01-14 14:49:00,54.6,38.7,30.13,West,267,3.0,11.0,55,0.00,,,0.00,Wunderground v.1.15,2013-01-14 19:49:00,
2013-01-14 14:50:00,54.6,38.7,30.13,West,267,4.0,11.0,55,0.00,,,0.00,Wunderground v.1.15,2013-01-14 19:50:00,
2013-01-14 14:53:00,54.7,39.3,30.13,West,277,3.0,11.0,56,0.00,,,0.00,Wunderground v.1.15,2013-01-14 19:53:00,
2013-01-14 14:54:00,54.8,38.9,30.13,West,265,8.0,11.0,55,0.00,,,0.00,Wunderground v.1.15,2013-01-14 19:54:00,
2013-01-14 14:55:00,54.8,38.9,30.13,West,275,3.0,11.0,55,0.00,,,0.00,Wunderground v.1.15,2013-01-14 19:55:00,
2013-01-14 14:58:00,54.8,38.9,30.13,West,267,4.0,8.0,55,0.00,,,0.00,Wunderground v.1.15,2013-01-14 19:58:00,
2013-01-14 14:59:00,54.6,38.7,30.12,NNW,339,4.0,8.0,55,0.00,,,0.00,Wunderground v.1.15,2013-01-14 19:59:00,
2013-01-14 15:00:00,54.6,38.7,30.12,NW,309,4.0,10.0,55,0.00,,,0.00,Wunderground v.1.15,2013-01-14 20:00:00,
2013-01-14 15:03:00,54.4,38.1,30.12,WNW,299,7.0,11.0,54,0.00,,,0.00,Wunderground v.1.15,2013-01-14 20:03:00,
2013-01-14 15:05:00,54.2,37.4,30.13,WNW,298,9.0,13.0,53,0.00,,,0.00,Wunderground v.1.15,2013-01-14 20:05:00,
2013-01-14 15:08:00,54.1,37.3,30.13,West,261,5.0,10.0,53,0.00,,,0.00,Wunderground v.1.15,2013-01-14 20:08:00,
2013-01-14 15:10:00,53.9,36.7,30.14,West,271,5.0,11.0,52,0.00,,,0.00,Wunderground v.1.15,2013-01-14 20:10:00,
2013-01-14 15:14:00,53.6,36.4,30.13,NW,314,5.0,11.0,52,0.00,,,0.00,Wunderground v.1.15,2013-01-14 20:14:00,
2013-01-14 15:15:00,53.7,36.0,30.13,West,280,4.0,11.0,51,0.00,,,0.00,Wunderground v.1.15,2013-01-14 20:15:00,
2013-01-14 15:16:00,53.6,35.9,30.13,West,259,6.0,6.0,51,0.00,,,0.00,Wunderground v.1.15,2013-01-14 20:16:00,
2013-01-14 15:19:00,53.4,35.7,30.14,West,272,4.0,10.0,51,0.00,,,0.00,Wunderground v.1.15,2013-01-14 20:19:00,
2013-01-14 15:20:00,53.4,35.7,30.14,WSW,251,8.0,10.0,51,0.00,,,0.00,Wunderground v.1.15,2013-01-14 20:20:00,
2013-01-14 15:21:00,53.3,35.6,30.14,WSW,251,4.0,10.0,51,0.00,,,0.00,Wunderground v.1.15,2013-01-14 20:21:00,
2013-01-14 15:24:00,53.0,35.8,30.14,WNW,293,4.0,10.0,52,0.00,,,0.00,Wunderground v.1.15,2013-01-14 20:24:00,
2013-01-14 15:25:00,52.9,35.2,30.14,NW,306,5.0,10.0,51,0.00,,,0.00,Wunderground v.1.15,2013-01-14 20:25:00,
2013-01-14 15:26:00,52.9,35.2,30.14,WNW,283,3.0,10.0,51,0.00,,,0.00,Wunderground v.1.15,2013-01-14 20:26:00,
2013-01-14 15:30:00,52.6,35.5,30.15,West,261,5.0,10.0,52,0.00,,,0.00,Wunderground v.1.15,2013-01-14 20:30:00,
2013-01-14 15:31:00,52.5,35.4,30.15,WSW,258,4.0,10.0,52,0.00,,,0.00,Wunderground v.1.15,2013-01-14 20:31:00,
2013-01-14 15:35:00,52.3,35.2,30.15,WNW,298,3.0,10.0,52,0.00,,,0.00,Wunderground v.1.15,2013-01-14 20:35:00,
2013-01-14 15:36:00,52.2,35.1,30.15,WNW,286,3.0,4.0,52,0.00,,,0.00,Wunderground v.1.15,2013-01-14 20:36:00,
2013-01-14 15:40:00,52.1,35.0,30.15,NW,312,5.0,14.0,52,0.00,,,0.00,Wunderground v.1.15,2013-01-14 20:40:00,
2013-01-14 15:41:00,52.1,35.0,30.16,WSW,251,3.0,14.0,52,0.00,,,0.00,Wunderground v.1.15,2013-01-14 20:41:00,
2013-01-14 15:42:00,52.1,35.0,30.16,West,274,4.0,14.0,52,0.00,,,0.00,Wunderground v.1.15,2013-01-14 20:42:00,
2013-01-14 15:45:00,52.0,34.9,30.16,WSW,244,0.0,14.0,52,0.00,,,0.00,Wunderground v.1.15,2013-01-14 20:45:00,
2013-01-14 15:46:00,51.9,35.3,30.16,NNW,335,4.0,6.0,53,0.00,,,0.00,Wunderground v.1.15,2013-01-14 20:46:00,
2013-01-14 15:47:00,51.9,35.3,30.16,WNW,294,3.0,6.0,53,0.00,,,0.00,Wunderground v.1.15,2013-01-14 20:47:00,
2013-01-14 15:51:00,51.9,35.3,30.16,WNW,294,3.0,6.0,53,0.00,,,0.00,Wunderground v.1.15,2013-01-14 20:51:00,
2013-01-14 15:52:00,51.8,33.7,30.16,West,265,5.0,8.0,50,0.00,,,0.00,Wunderground v.1.15,2013-01-14 20:52:00,
2013-01-14 15:56:00,51.8,31.7,30.16,NW,311,7.0,12.0,46,0.00,,,0.00,Wunderground v.1.15,2013-01-14 20:56:00,
2013-01-14 15:57:00,51.7,31.0,30.16,NW,304,5.0,9.0,45,0.00,,,0.00,Wunderground v.1.15,2013-01-14 20:57:00,
2013-01-14 15:58:00,51.7,31.0,30.16,West,275,6.0,12.0,45,0.00,,,0.00,Wunderground v.1.15,2013-01-14 20:58:00,
2013-01-14 16:01:00,51.6,31.5,30.17,West,269,4.0,12.0,46,0.00,,,0.00,Wunderground v.1.15,2013-01-14 21:01:00,
2013-01-14 16:02:00,51.5,30.8,30.17,WNW,292,4.0,12.0,45,0.00,,,0.00,Wunderground v.1.15,2013-01-14 21:02:00,
2013-01-14 16:03:00,51.5,31.4,30.17,WNW,303,0.0,12.0,46,0.00,,,0.00,Wunderground v.1.15,2013-01-14 21:03:00,
2013-01-14 16:06:00,51.4,30.7,30.17,WNW,288,6.0,7.0,45,0.00,,,0.00,Wunderground v.1.15,2013-01-14 21:06:00,
2013-01-14 16:07:00,51.3,31.2,30.17,NW,311,4.0,7.0,46,0.00,,,0.00,Wunderground v.1.15,2013-01-14 21:07:00,
2013-01-14 16:08:00,51.3,30.7,30.17,West,273,9.0,13.0,45,0.00,,,0.00,Wunderground v.1.15,2013-01-14 21:08:00,
2013-01-14 16:09:00,51.2,30.6,30.17,NW,305,9.0,13.0,45,0.00,,,0.00,Wunderground v.1.15,2013-01-14 21:09:00,
2013-01-14 16:11:00,51.1,29.9,30.17,North,355,10.0,13.0,44,0.00,,,0.00,Wunderground v.1.15,2013-01-14 21:11:00,
2013-01-14 16:12:00,51.0,29.8,30.17,North,355,12.0,13.0,44,0.00,,,0.00,Wunderground v.1.15,2013-01-14 21:12:00,
2013-01-14 16:13:00,51.0,29.8,30.17,West,270,7.0,13.0,44,0.00,,,0.00,Wunderground v.1.15,2013-01-14 21:13:00,
2013-01-14 16:14:00,50.9,29.2,30.17,NW,306,9.0,13.0,43,0.00,,,0.00,Wunderground v.1.15,2013-01-14 21:14:00,
2013-01-14 16:16:00,50.8,29.1,30.17,North,5,4.0,8.0,43,0.00,,,0.00,Wunderground v.1.15,2013-01-14 21:16:00,
2013-01-14 16:18:00,50.6,28.3,30.17,NNW,342,9.0,13.0,42,0.00,,,0.00,Wunderground v.1.15,2013-01-14 21:18:00,
2013-01-14 16:19:00,50.6,28.3,30.17,WNW,298,8.0,16.0,42,0.00,,,0.00,Wunderground v.1.15,2013-01-14 21:19:00,
2013-01-14 16:22:00,50.4,28.1,30.17,WNW,303,5.0,16.0,42,0.00,,,0.00,Wunderground v.1.15,2013-01-14 21:22:00,
2013-01-14 16:23:00,50.4,28.1,30.17,WSW,251,4.0,16.0,42,0.00,,,0.00,Wunderground v.1.15,2013-01-14 21:23:00,
2013-01-14 16:24:00,50.3,28.1,30.18,West,274,4.0,16.0,42,0.00,,,0.00,Wunderground v.1.15,2013-01-14 21:24:00,
2013-01-14 16:27:00,50.1,28.4,30.18,WNW,286,5.0,10.0,43,0.00,,,0.00,Wunderground v.1.15,2013-01-14 21:27:00,
2013-01-14 16:28:00,50.1,28.4,30.18,West,265,7.0,10.0,43,0.00,,,0.00,Wunderground v.1.15,2013-01-14 21:28:00,
2013-01-14 16:29:00,50.0,28.4,30.18,NW,325,4.0,10.0,43,0.00,,,0.00,Wunderground v.1.15,2013-01-14 21:29:00,
2013-01-14 16:30:00,50.0,28.4,30.18,West,271,6.0,10.0,43,0.00,,,0.00,Wunderground v.1.15,2013-01-14 21:30:00,
2013-01-14 16:33:00,50.0,28.9,30.17,NW,323,2.0,10.0,44,0.00,,,0.00,Wunderground v.1.15,2013-01-14 21:33:00,
2013-01-14 16:34:00,50.2,36.8,30.17,WNW,300,4.0,11.0,60,0.00,,,0.00,Wunderground v.1.15,2013-01-14 21:34:00,
2013-01-14 16:35:00,50.2,36.8,30.17,West,277,3.0,11.0,60,0.00,,,0.00,Wunderground v.1.15,2013-01-14 21:35:00,
2013-01-14 16:38:00,50.0,30.0,30.17,NW,316,12.0,13.0,46,0.00,,,0.00,Wunderground v.1.15,2013-01-14 21:38:00,
2013-01-14 16:40:00,49.7,28.6,30.17,West,274,10.0,17.0,44,0.00,,,0.00,Wunderground v.1.15,2013-01-14 21:40:00,
2013-01-14 16:43:00,49.5,29.0,30.18,NNW,334,5.0,17.0,45,0.00,,,0.00,Wunderground v.1.15,2013-01-14 21:43:00,
2013-01-14 16:45:00,49.5,29.6,30.17,SSW,207,2.0,17.0,46,0.00,,,0.00,Wunderground v.1.15,2013-01-14 21:45:00,
2013-01-14 16:48:00,49.7,30.8,30.18,West,281,2.0,8.0,48,0.00,,,0.00,Wunderground v.1.15,2013-01-14 21:48:00,
2013-01-14 16:50:00,49.7,31.3,30.18,NW,314,3.0,8.0,49,0.00,,,0.00,Wunderground v.1.15,2013-01-14 21:50:00,
2013-01-14 16:51:00,49.7,30.8,30.18,NW,309,1.0,8.0,48,0.00,,,0.00,Wunderground v.1.15,2013-01-14 21:51:00,
2013-01-14 16:53:00,49.5,29.6,30.18,WNW,300,3.0,8.0,46,0.00,,,0.00,Wunderground v.1.15,2013-01-14 21:53:00,
2013-01-14 16:54:00,49.5,29.6,30.18,NW,315,6.0,8.0,46,0.00,,,0.00,Wunderground v.1.15,2013-01-14 21:54:00,
2013-01-14 16:55:00,49.3,29.4,30.18,WNW,301,4.0,9.0,46,0.00,,,0.00,Wunderground v.1.15,2013-01-14 21:55:00,
2013-01-14 16:56:00,49.2,29.3,30.18,WNW,283,3.0,9.0,46,0.00,,,0.00,Wunderground v.1.15,2013-01-14 21:56:00,
2013-01-14 16:58:00,49.0,31.2,30.18,WNW,296,3.0,7.0,50,0.00,,,0.00,Wunderground v.1.15,2013-01-14 21:58:00,
2013-01-14 16:59:00,48.9,29.5,30.19,NW,305,3.0,7.0,47,0.00,,,0.00,Wunderground v.1.15,2013-01-14 21:59:00,
2013-01-14 17:00:00,48.8,28.9,30.19,West,281,6.0,7.0,46,0.00,,,0.00,Wunderground v.1.15,2013-01-14 22:00:00,
2013-01-14 17:01:00,48.6,28.7,30.19,West,267,1.0,7.0,46,0.00,,,0.00,Wunderground v.1.15,2013-01-14 22:01:00,
2013-01-14 17:03:00,48.5,29.2,30.19,West,265,2.0,8.0,47,0.00,,,0.00,Wunderground v.1.15,2013-01-14 22:03:00,
2013-01-14 17:04:00,48.4,29.1,30.19,WNW,285,2.0,8.0,47,0.00,,,0.00,Wunderground v.1.15,2013-01-14 22:04:00,
2013-01-14 17:05:00,48.3,29.0,30.19,WNW,285,1.0,8.0,47,0.00,,,0.00,Wunderground v.1.15,2013-01-14 22:05:00,
2013-01-14 17:06:00,48.2,28.9,30.19,WNW,285,1.0,4.0,47,0.00,,,0.00,Wunderground v.1.15,2013-01-14 22:06:00,
2013-01-14 17:08:00,48.1,28.8,30.19,West,263,4.0,6.0,47,0.00,,,0.00,Wunderground v.1.15,2013-01-14 22:08:00,
2013-01-14 17:09:00,48.1,28.8,30.19,West,271,4.0,6.0,47,0.00,,,0.00,Wunderground v.1.15,2013-01-14 22:09:00,
2013-01-14 17:11:00,47.9,28.6,30.19,NW,305,3.0,9.0,47,0.00,,,0.00,Wunderground v.1.15,2013-01-14 22:11:00,
2013-01-14 17:13:00,47.8,29.0,30.19,WNW,292,6.0,9.0,48,0.00,,,0.00,Wunderground v.1.15,2013-01-14 22:13:00,
2013-01-14 17:15:00,47.7,28.9,30.19,West,277,2.0,9.0,48,0.00,,,0.00,Wunderground v.1.15,2013-01-14 22:15:00,
2013-01-14 17:16:00,47.7,29.5,30.19,WSW,251,1.0,4.0,49,0.00,,,0.00,Wunderground v.1.15,2013-01-14 22:16:00,
2013-01-14 17:17:00,47.6,29.4,30.19,WSW,251,2.0,4.0,49,0.00,,,0.00,Wunderground v.1.15,2013-01-14 22:17:00,
2013-01-14 17:19:00,47.6,29.4,30.19,NNW,329,4.0,4.0,49,0.00,,,0.00,Wunderground v.1.15,2013-01-14 22:19:00,
2013-01-14 17:20:00,47.5,29.3,30.19,West,265,5.0,5.0,49,0.00,,,0.00,Wunderground v.1.15,2013-01-14 22:20:00,
2013-01-14 17:21:00,47.4,29.2,30.19,WSW,249,3.0,5.0,49,0.00,,,0.00,Wunderground v.1.15,2013-01-14 22:21:00,
2013-01-14 17:23:00,47.3,29.6,30.20,NNW,341,1.0,5.0,50,0.00,,,0.00,Wunderground v.1.15,2013-01-14 22:23:00,
2013-01-14 17:24:00,47.3,29.6,30.20,NNW,341,1.0,5.0,50,0.00,,,0.00,Wunderground v.1.15,2013-01-14 22:24:00,
2013-01-14 17:25:00,47.2,29.5,30.20,NNW,338,4.0,5.0,50,0.00,,,0.00,Wunderground v.1.15,2013-01-14 22:25:00,
2013-01-14 17:26:00,47.2,29.5,30.20,NNW,328,3.0,3.0,50,0.00,,,0.00,Wunderground v.1.15,2013-01-14 22:26:00,
2013-01-14 17:28:00,47.2,29.5,30.20,North,355,6.0,9.0,50,0.00,,,0.00,Wunderground v.1.15,2013-01-14 22:28:00,
2013-01-14 17:29:00,47.1,29.4,30.20,WSW,256,2.0,9.0,50,0.00,,,0.00,Wunderground v.1.15,2013-01-14 22:29:00,
2013-01-14 17:30:00,47.1,29.4,30.20,NW,311,2.0,9.0,50,0.00,,,0.00,Wunderground v.1.15,2013-01-14 22:30:00,
2013-01-14 17:32:00,47.0,29.8,30.20,NNW,333,0.0,9.0,51,0.00,,,0.00,Wunderground v.1.15,2013-01-14 22:32:00,
2013-01-14 17:33:00,46.9,29.7,30.20,NNW,338,5.0,9.0,51,0.00,,,0.00,Wunderground v.1.15,2013-01-14 22:33:00,
2013-01-14 17:34:00,46.9,29.7,30.20,WNW,292,4.0,9.0,51,0.00,,,0.00,Wunderground v.1.15,2013-01-14 22:34:00,
2013-01-14 17:35:00,46.9,29.7,30.20,WNW,294,2.0,9.0,51,0.00,,,0.00,Wunderground v.1.15,2013-01-14 22:35:00,
2013-01-14 17:38:00,46.8,29.6,30.20,NW,320,3.0,6.0,51,0.00,,,0.00,Wunderground v.1.15,2013-01-14 22:38:00,
2013-01-14 17:39:00,46.8,29.6,30.19,WNW,290,3.0,6.0,51,0.00,,,0.00,Wunderground v.1.15,2013-01-14 22:39:00,
2013-01-14 17:40:00,46.7,29.5,30.19,WNW,282,3.0,6.0,51,0.00,,,0.00,Wunderground v.1.15,2013-01-14 22:40:00,
2013-01-14 17:43:00,46.6,29.9,30.19,NNW,327,1.0,6.0,52,0.00,,,0.00,Wunderground v.1.15,2013-01-14 22:43:00,
2013-01-14 17:44:00,46.6,29.9,30.19,NNW,329,2.0,6.0,52,0.00,,,0.00,Wunderground v.1.15,2013-01-14 22:44:00,
2013-01-14 17:45:00,46.5,29.8,30.19,NNW,342,1.0,6.0,52,0.00,,,0.00,Wunderground v.1.15,2013-01-14 22:45:00,
2013-01-14 17:49:00,46.4,30.2,30.19,NW,317,0.0,2.0,53,0.00,,,0.00,Wunderground v.1.15,2013-01-14 22:49:00,
2013-01-14 17:50:00,46.4,30.6,30.19,NW,317,0.0,2.0,54,0.00,,,0.00,Wunderground v.1.15,2013-01-14 22:50:00,
2013-01-14 17:54:00,46.2,30.0,30.19,NW,319,0.0,2.0,53,0.00,,,0.00,Wunderground v.1.15,2013-01-14 22:54:00,
2013-01-14 17:55:00,46.2,30.5,30.19,NW,319,1.0,2.0,54,0.00,,,0.00,Wunderground v.1.15,2013-01-14 22:55:00,
2013-01-14 17:56:00,46.2,30.0,30.19,NW,319,2.0,3.0,53,0.00,,,0.00,Wunderground v.1.15,2013-01-14 22:56:00,
2013-01-14 17:59:00,46.0,30.3,30.19,NW,319,1.0,2.0,54,0.00,,,0.00,Wunderground v.1.15,2013-01-14 22:59:00,
2013-01-14 18:00:00,46.0,29.8,30.19,NW,319,0.0,2.0,53,0.00,,,0.00,Wunderground v.1.15,2013-01-14 23:00:00,
2013-01-14 18:01:00,45.9,30.2,30.19,NW,319,0.0,2.0,54,0.00,,,0.00,Wunderground v.1.15,2013-01-14 23:01:00,
2013-01-14 18:04:00,45.7,30.4,30.19,NW,319,2.0,2.0,55,0.00,,,0.00,Wunderground v.1.15,2013-01-14 23:04:00,
2013-01-14 18:05:00,45.6,30.3,30.19,NW,319,2.0,2.0,55,0.00,,,0.00,Wunderground v.1.15,2013-01-14 23:05:00,
2013-01-14 18:07:00,45.5,30.3,30.19,NW,319,0.0,1.0,55,0.00,,,0.00,Wunderground v.1.15,2013-01-14 23:07:00,
2013-01-14 18:10:00,45.3,30.1,30.19,NW,319,2.0,2.0,55,0.00,,,0.00,Wunderground v.1.15,2013-01-14 23:10:00,
2013-01-14 18:12:00,45.2,30.4,30.19,NW,319,0.0,2.0,56,0.00,,,0.00,Wunderground v.1.15,2013-01-14 23:12:00,
2013-01-14 18:15:00,45.0,30.7,30.20,NW,319,1.0,2.0,57,0.00,,,0.00,Wunderground v.1.15,2013-01-14 23:15:00,
2013-01-14 18:16:00,45.0,30.7,30.20,NW,319,1.0,2.0,57,0.00,,,0.00,Wunderground v.1.15,2013-01-14 23:16:00,
2013-01-14 18:17:00,44.7,30.4,30.20,NW,319,0.0,2.0,57,0.00,,,0.00,Wunderground v.1.15,2013-01-14 23:17:00,
2013-01-14 18:20:00,44.3,30.0,30.20,NW,319,0.0,2.0,57,0.00,,,0.00,Wunderground v.1.15,2013-01-14 23:20:00,
2013-01-14 18:21:00,44.3,30.0,30.20,NW,319,0.0,2.0,57,0.00,,,0.00,Wunderground v.1.15,2013-01-14 23:21:00,
2013-01-14 18:22:00,44.3,30.0,30.20,NW,319,0.0,2.0,57,0.00,,,0.00,Wunderground v.1.15,2013-01-14 23:22:00,
2013-01-14 18:26:00,44.1,30.7,30.19,NW,319,0.0,2.0,59,0.00,,,0.00,Wunderground v.1.15,2013-01-14 23:26:00,
2013-01-14 18:27:00,44.1,30.7,30.19,NW,319,0.0,1.0,59,0.00,,,0.00,Wunderground v.1.15,2013-01-14 23:27:00,
2013-01-14 18:28:00,44.0,30.6,30.19,NW,319,0.0,1.0,59,0.00,,,0.00,Wunderground v.1.15,2013-01-14 23:28:00,
2013-01-14 18:31:00,43.8,30.8,30.20,NW,319,0.0,2.0,60,0.00,,,0.00,Wunderground v.1.15,2013-01-14 23:31:00,
2013-01-14 18:33:00,43.6,30.6,30.21,NW,319,0.0,2.0,60,0.00,,,0.00,Wunderground v.1.15,2013-01-14 23:33:00,
2013-01-14 18:36:00,43.5,30.5,30.21,NW,320,1.0,2.0,60,0.00,,,0.00,Wunderground v.1.15,2013-01-14 23:36:00,
2013-01-14 18:37:00,43.5,30.5,30.21,NW,320,1.0,2.0,60,0.00,,,0.00,Wunderground v.1.15,2013-01-14 23:37:00,
2013-01-14 18:38:00,43.5,30.5,30.21,NW,320,0.0,2.0,60,0.00,,,0.00,Wunderground v.1.15,2013-01-14 23:38:00,
2013-01-14 18:41:00,43.6,30.2,30.21,NW,304,3.0,5.0,59,0.00,,,0.00,Wunderground v.1.15,2013-01-14 23:41:00,
2013-01-14 18:43:00,43.7,30.3,30.21,West,277,1.0,5.0,59,0.00,,,0.00,Wunderground v.1.15,2013-01-14 23:43:00,
2013-01-14 18:44:00,43.8,30.0,30.21,WNW,296,1.0,5.0,58,0.00,,,0.00,Wunderground v.1.15,2013-01-14 23:44:00,
2013-01-14 18:46:00,43.8,30.4,30.20,WNW,295,3.0,3.0,59,0.00,,,0.00,Wunderground v.1.15,2013-01-14 23:46:00,
2013-01-14 18:48:00,43.9,30.1,30.20,WNW,292,2.0,4.0,58,0.00,,,0.00,Wunderground v.1.15,2013-01-14 23:48:00,
2013-01-14 18:49:00,44.0,30.2,30.20,WNW,296,2.0,4.0,58,0.00,,,0.00,Wunderground v.1.15,2013-01-14 23:49:00,
2013-01-14 18:52:00,44.0,30.2,30.20,NW,324,3.0,4.0,58,0.00,,,0.00,Wunderground v.1.15,2013-01-14 23:52:00,
2013-01-14 18:54:00,43.9,30.1,30.21,NW,307,3.0,4.0,58,0.00,,,0.00,Wunderground v.1.15,2013-01-14 23:54:00,
2013-01-14 18:57:00,43.9,30.1,30.21,NW,307,0.0,2.0,58,0.00,,,0.00,Wunderground v.1.15,2013-01-14 23:57:00,
2013-01-14 18:59:00,43.9,30.1,30.21,NW,307,1.0,3.0,58,0.00,,,0.00,Wunderground v.1.15,2013-01-14 23:59:00,
2013-01-14 19:03:00,43.8,30.0,30.22,NW,309,1.0,4.0,58,0.00,,,0.00,Wunderground v.1.15,2013-01-15 00:03:00,
2013-01-14 19:04:00,43.8,30.4,30.22,NW,309,1.0,4.0,59,0.00,,,0.00,Wunderground v.1.15,2013-01-15 00:04:00,
2013-01-14 19:05:00,43.8,30.4,30.22,NW,309,0.0,4.0,59,0.00,,,0.00,Wunderground v.1.15,2013-01-15 00:05:00,
2013-01-14 19:08:00,43.7,30.3,30.22,NW,309,1.0,3.0,59,0.00,,,0.00,Wunderground v.1.15,2013-01-15 00:08:00,
2013-01-14 19:10:00,43.7,30.3,30.22,NW,309,1.0,3.0,59,0.00,,,0.00,Wunderground v.1.15,2013-01-15 00:10:00,
2013-01-14 19:14:00,43.6,30.2,30.22,NW,317,3.0,5.0,59,0.00,,,0.00,Wunderground v.1.15,2013-01-15 00:14:00,
2013-01-14 19:15:00,43.5,30.5,30.22,NW,316,3.0,5.0,60,0.00,,,0.00,Wunderground v.1.15,2013-01-15 00:15:00,
2013-01-14 19:19:00,43.4,30.0,30.22,NW,320,1.0,4.0,59,0.00,,,0.00,Wunderground v.1.15,2013-01-15 00:19:00,
2013-01-14 19:20:00,43.4,30.4,30.22,NW,320,1.0,4.0,60,0.00,,,0.00,Wunderground v.1.15,2013-01-15 00:20:00,
2013-01-14 19:21:00,43.3,30.3,30.22,NW,320,0.0,4.0,60,0.00,,,0.00,Wunderground v.1.15,2013-01-15 00:21:00,
2013-01-14 19:24:00,43.3,30.3,30.22,NW,320,0.0,4.0,60,0.00,,,0.00,Wunderground v.1.15,2013-01-15 00:24:00,
2013-01-14 19:25:00,43.3,30.3,30.22,NW,320,2.0,4.0,60,0.00,,,0.00,Wunderground v.1.15,2013-01-15 00:25:00,
2013-01-14 19:26:00,43.3,30.3,30.21,NW,320,0.0,1.0,60,0.00,,,0.00,Wunderground v.1.15,2013-01-15 00:26:00,
2013-01-14 19:30:00,43.3,30.3,30.21,NW,320,0.0,2.0,60,0.00,,,0.00,Wunderground v.1.15,2013-01-15 00:30:00,
2013-01-14 19:31:00,43.3,30.3,30.22,NW,320,3.0,3.0,60,0.00,,,0.00,Wunderground v.1.15,2013-01-15 00:31:00,
2013-01-14 19:32:00,43.3,30.3,30.21,NW,320,1.0,3.0,60,0.00,,,0.00,Wunderground v.1.15,2013-01-15 00:32:00,
2013-01-14 19:35:00,43.3,30.3,30.21,WNW,288,4.0,4.0,60,0.00,,,0.00,Wunderground v.1.15,2013-01-15 00:35:00,
2013-01-14 19:36:00,43.3,30.3,30.21,NW,312,5.0,6.0,60,0.00,,,0.00,Wunderground v.1.15,2013-01-15 00:36:00,
2013-01-14 19:37:00,43.3,30.3,30.22,NW,308,3.0,6.0,60,0.00,,,0.00,Wunderground v.1.15,2013-01-15 00:37:00,
2013-01-14 19:40:00,43.1,31.0,30.23,WNW,282,9.0,9.0,62,0.00,,,0.00,Wunderground v.1.15,2013-01-15 00:40:00,
2013-01-14 19:41:00,43.1,30.6,30.23,West,259,2.0,9.0,61,0.00,,,0.00,Wunderground v.1.15,2013-01-15 00:41:00,
2013-01-14 19:42:00,43.0,30.5,30.24,NW,319,2.0,9.0,61,0.00,,,0.00,Wunderground v.1.15,2013-01-15 00:42:00,
2013-01-14 19:45:00,43.0,30.5,30.24,WNW,290,7.0,9.0,61,0.00,,,0.00,Wunderground v.1.15,2013-01-15 00:45:00,
2013-01-14 19:46:00,43.0,30.1,30.25,NNW,327,5.0,6.0,60,0.00,,,0.00,Wunderground v.1.15,2013-01-15 00:46:00,
2013-01-14 19:47:00,43.0,30.1,30.25,NW,318,7.0,7.0,60,0.00,,,0.00,Wunderground v.1.15,2013-01-15 00:47:00,
2013-01-14 19:48:00,43.1,30.1,30.25,WNW,302,7.0,11.0,60,0.00,,,0.00,Wunderground v.1.15,2013-01-15 00:48:00,
2013-01-14 19:50:00,43.1,30.1,30.24,West,259,5.0,11.0,60,0.00,,,0.00,Wunderground v.1.15,2013-01-15 00:50:00,
2013-01-14 19:52:00,43.2,30.2,30.25,SW,219,3.0,11.0,60,0.00,,,0.00,Wunderground v.1.15,2013-01-15 00:52:00,
2013-01-14 19:53:00,43.2,30.2,30.25,NW,306,3.0,11.0,60,0.00,,,0.00,Wunderground v.1.15,2013-01-15 00:53:00,
2013-01-14 19:56:00,43.2,30.2,30.25,NW,321,6.0,6.0,60,0.00,,,0.00,Wunderground v.1.15,2013-01-15 00:56:00,
2013-01-14 19:57:00,43.2,30.2,30.25,NW,311,8.0,9.0,60,0.00,,,0.00,Wunderground v.1.15,2013-01-15 00:57:00,
2013-01-14 19:58:00,43.2,30.2,30.25,West,274,5.0,9.0,60,0.00,,,0.00,Wunderground v.1.15,2013-01-15 00:58:00,
2013-01-14 20:01:00,43.1,30.1,30.25,NNW,331,8.0,9.0,60,0.00,,,0.00,Wunderground v.1.15,2013-01-15 01:01:00,
2013-01-14 20:02:00,43.1,30.1,30.25,WNW,298,6.0,9.0,60,0.00,,,0.00,Wunderground v.1.15,2013-01-15 01:02:00,
2013-01-14 20:03:00,43.1,30.1,30.25,NNW,340,4.0,9.0,60,0.00,,,0.00,Wunderground v.1.15,2013-01-15 01:03:00,
2013-01-14 20:07:00,43.0,30.1,30.25,NNW,329,7.0,12.0,60,0.00,,,0.00,Wunderground v.1.15,2013-01-15 01:07:00,
2013-01-14 20:08:00,43.0,30.1,30.25,NW,310,8.0,12.0,60,0.00,,,0.00,Wunderground v.1.15,2013-01-15 01:08:00,
2013-01-14 20:12:00,43.0,29.6,30.26,WNW,286,6.0,15.0,59,0.00,,,0.00,Wunderground v.1.15,2013-01-15 01:12:00,
2013-01-14 20:13:00,43.0,29.6,30.26,WNW,299,7.0,15.0,59,0.00,,,0.00,Wunderground v.1.15,2013-01-15 01:13:00,
2013-01-14 20:14:00,42.9,29.5,30.26,NNW,328,2.0,15.0,59,0.00,,,0.00,Wunderground v.1.15,2013-01-15 01:14:00,
2013-01-14 20:17:00,42.9,29.5,30.26,NW,318,3.0,8.0,59,0.00,,,0.00,Wunderground v.1.15,2013-01-15 01:17:00,
2013-01-14 20:18:00,42.9,30.0,30.26,WNW,282,4.0,8.0,60,0.00,,,0.00,Wunderground v.1.15,2013-01-15 01:18:00,
2013-01-14 20:19:00,42.9,30.0,30.25,WNW,302,7.0,9.0,60,0.00,,,0.00,Wunderground v.1.15,2013-01-15 01:19:00,
2013-01-14 20:22:00,42.8,29.9,30.26,WNW,300,10.0,10.0,60,0.00,,,0.00,Wunderground v.1.15,2013-01-15 01:22:00,
2013-01-14 20:23:00,42.8,29.5,30.26,NW,326,8.0,10.0,59,0.00,,,0.00,Wunderground v.1.15,2013-01-15 01:23:00,
2013-01-14 20:24:00,42.8,29.5,30.26,WSW,258,5.0,15.0,59,0.00,,,0.00,Wunderground v.1.15,2013-01-15 01:24:00,
2013-01-14 20:27:00,42.8,29.9,30.26,WNW,296,8.0,10.0,60,0.00,,,0.00,Wunderground v.1.15,2013-01-15 01:27:00,
2013-01-14 20:28:00,42.7,29.4,30.26,WNW,286,3.0,10.0,59,0.00,,,0.00,Wunderground v.1.15,2013-01-15 01:28:00,
2013-01-14 20:29:00,42.7,29.8,30.26,NNW,344,7.0,10.0,60,0.00,,,0.00,Wunderground v.1.15,2013-01-15 01:29:00,
2013-01-14 20:32:00,42.7,29.8,30.26,WNW,299,3.0,10.0,60,0.00,,,0.00,Wunderground v.1.15,2013-01-15 01:32:00,
2013-01-14 20:33:00,42.7,29.8,30.26,NW,304,4.0,10.0,60,0.00,,,0.00,Wunderground v.1.15,2013-01-15 01:33:00,
2013-01-14 20:34:00,42.7,29.8,30.26,WNW,297,7.0,10.0,60,0.00,,,0.00,Wunderground v.1.15,2013-01-15 01:34:00,
2013-01-14 20:37:00,42.6,29.7,30.27,NW,317,2.0,8.0,60,0.00,,,0.00,Wunderground v.1.15,2013-01-15 01:37:00,
2013-01-14 20:39:00,42.5,29.6,30.27,NNW,327,4.0,8.0,60,0.00,,,0.00,Wunderground v.1.15,2013-01-15 01:39:00,
2013-01-14 20:42:00,42.5,29.6,30.28,WNW,295,5.0,9.0,60,0.00,,,0.00,Wunderground v.1.15,2013-01-15 01:42:00,
2013-01-14 20:44:00,42.5,29.6,30.27,West,275,0.0,9.0,60,0.00,,,0.00,Wunderground v.1.15,2013-01-15 01:44:00,
2013-01-14 20:45:00,42.5,30.0,30.27,WNW,294,4.0,9.0,61,0.00,,,0.00,Wunderground v.1.15,2013-01-15 01:45:00,
2013-01-14 20:48:00,42.4,29.5,30.27,West,269,5.0,9.0,60,0.00,,,0.00,Wunderground v.1.15,2013-01-15 01:48:00,
2013-01-14 20:49:00,42.4,29.9,30.27,WSW,250,7.0,9.0,61,0.00,,,0.00,Wunderground v.1.15,2013-01-15 01:49:00,
2013-01-14 20:50:00,42.4,29.5,30.27,WNW,286,4.0,9.0,60,0.00,,,0.00,Wunderground v.1.15,2013-01-15 01:50:00,
2013-01-14 20:53:00,42.3,29.4,30.28,West,270,3.0,11.0,60,0.00,,,0.00,Wunderground v.1.15,2013-01-15 01:53:00,
2013-01-14 20:54:00,42.2,29.7,30.28,West,265,6.0,11.0,61,0.00,,,0.00,Wunderground v.1.15,2013-01-15 01:54:00,
2013-01-14 20:55:00,42.2,29.7,30.28,WNW,300,8.0,11.0,61,0.00,,,0.00,Wunderground v.1.15,2013-01-15 01:55:00,
2013-01-14 20:58:00,42.2,29.7,30.28,West,281,5.0,11.0,61,0.00,,,0.00,Wunderground v.1.15,2013-01-15 01:58:00,
2013-01-14 21:00:00,42.1,29.6,30.28,WNW,294,11.0,14.0,61,0.00,,,0.00,Wunderground v.1.15,2013-01-15 02:00:00,
2013-01-14 21:04:00,42.0,29.5,30.27,WNW,284,2.0,14.0,61,0.00,,,0.00,Wunderground v.1.15,2013-01-15 02:04:00,
2013-01-14 21:05:00,42.0,29.5,30.27,West,261,8.0,14.0,61,0.00,,,0.00,Wunderground v.1.15,2013-01-15 02:05:00,
2013-01-14 21:09:00,41.9,29.4,30.27,West,278,5.0,12.0,61,0.00,,,0.00,Wunderground v.1.15,2013-01-15 02:09:00,
2013-01-14 21:10:00,41.8,29.3,30.27,NW,323,4.0,12.0,61,0.00,,,0.00,Wunderground v.1.15,2013-01-15 02:10:00,
2013-01-14 21:14:00,41.7,29.2,30.26,West,277,3.0,12.0,61,0.00,,,0.00,Wunderground v.1.15,2013-01-15 02:14:00,
2013-01-14 21:15:00,41.7,29.2,30.26,WNW,288,3.0,12.0,61,0.00,,,0.00,Wunderground v.1.15,2013-01-15 02:15:00,
2013-01-14 21:19:00,41.5,29.0,30.26,NW,307,4.0,7.0,61,0.00,,,0.00,Wunderground v.1.15,2013-01-15 02:19:00,
2013-01-14 21:20:00,41.5,29.0,30.26,NW,305,1.0,7.0,61,0.00,,,0.00,Wunderground v.1.15,2013-01-15 02:20:00,
2013-01-14 21:21:00,41.5,29.4,30.26,North,350,7.0,7.0,62,0.00,,,0.00,Wunderground v.1.15,2013-01-15 02:21:00,
2013-01-14 21:24:00,41.4,28.9,30.26,WNW,284,5.0,9.0,61,0.00,,,0.00,Wunderground v.1.15,2013-01-15 02:24:00,
2013-01-14 21:25:00,41.4,28.9,30.26,NW,315,4.0,11.0,61,0.00,,,0.00,Wunderground v.1.15,2013-01-15 02:25:00,
2013-01-14 21:26:00,41.3,28.9,30.26,NW,313,4.0,11.0,61,0.00,,,0.00,Wunderground v.1.15,2013-01-15 02:26:00,
2013-01-14 21:30:00,41.2,29.2,30.26,NW,305,1.0,10.0,62,0.00,,,0.00,Wunderground v.1.15,2013-01-15 02:30:00,
2013-01-14 21:31:00,41.2,29.2,30.26,NW,305,1.0,10.0,62,0.00,,,0.00,Wunderground v.1.15,2013-01-15 02:31:00,
2013-01-14 21:35:00,41.1,29.1,30.27,NW,325,1.0,10.0,62,0.00,,,0.00,Wunderground v.1.15,2013-01-15 02:35:00,
2013-01-14 21:36:00,41.1,29.1,30.27,NW,325,2.0,10.0,62,0.00,,,0.00,Wunderground v.1.15,2013-01-15 02:36:00,
2013-01-14 21:37:00,41.1,29.1,30.26,West,269,6.0,6.0,62,0.00,,,0.00,Wunderground v.1.15,2013-01-15 02:37:00,
2013-01-14 21:41:00,40.9,28.9,30.26,NNW,340,4.0,8.0,62,0.00,,,0.00,Wunderground v.1.15,2013-01-15 02:41:00,
2013-01-14 21:42:00,40.9,28.9,30.27,WNW,289,4.0,8.0,62,0.00,,,0.00,Wunderground v.1.15,2013-01-15 02:42:00,
2013-01-14 21:46:00,40.8,29.2,30.27,WNW,296,2.0,4.0,63,0.00,,,0.00,Wunderground v.1.15,2013-01-15 02:46:00,
2013-01-14 21:47:00,40.8,29.2,30.28,WSW,258,2.0,4.0,63,0.00,,,0.00,Wunderground v.1.15,2013-01-15 02:47:00,
2013-01-14 21:51:00,40.7,28.7,30.27,WNW,294,7.0,7.0,62,0.00,,,0.00,Wunderground v.1.15,2013-01-15 02:51:00,
2013-01-14 21:52:00,40.7,29.1,30.27,West,267,7.0,7.0,63,0.00,,,0.00,Wunderground v.1.15,2013-01-15 02:52:00,
2013-01-14 21:57:00,40.6,29.0,30.27,NW,314,2.0,4.0,63,0.00,,,0.00,Wunderground v.1.15,2013-01-15 02:57:00,
2013-01-14 21:58:00,40.6,29.0,30.27,NW,306,4.0,9.0,63,0.00,,,0.00,Wunderground v.1.15,2013-01-15 02:58:00,
2013-01-14 22:02:00,40.5,28.9,30.27,NNW,336,2.0,9.0,63,0.00,,,0.00,Wunderground v.1.15,2013-01-15 03:02:00,
2013-01-14 22:03:00,40.5,28.9,30.28,NNW,340,4.0,9.0,63,0.00,,,0.00,Wunderground v.1.15,2013-01-15 03:03:00,
2013-01-14 22:07:00,40.4,28.8,30.28,NNW,327,4.0,7.0,63,0.00,,,0.00,Wunderground v.1.15,2013-01-15 03:07:00,
2013-01-14 22:08:00,40.4,28.8,30.28,NW,315,5.0,9.0,63,0.00,,,0.00,Wunderground v.1.15,2013-01-15 03:08:00,
2013-01-14 22:12:00,40.3,28.7,30.28,NW,308,3.0,9.0,63,0.00,,,0.00,Wunderground v.1.15,2013-01-15 03:12:00,
2013-01-14 22:13:00,40.3,28.7,30.28,West,281,4.0,9.0,63,0.00,,,0.00,Wunderground v.1.15,2013-01-15 03:13:00,
2013-01-14 22:17:00,40.2,28.6,30.28,NNW,327,8.0,11.0,63,0.00,,,0.00,Wunderground v.1.15,2013-01-15 03:17:00,
2013-01-14 22:18:00,40.2,28.6,30.28,WNW,293,4.0,11.0,63,0.00,,,0.00,Wunderground v.1.15,2013-01-15 03:18:00,
2013-01-14 22:22:00,40.1,28.5,30.28,North,355,2.0,12.0,63,0.00,,,0.00,Wunderground v.1.15,2013-01-15 03:22:00,
2013-01-14 22:23:00,40.0,28.8,30.28,NNW,342,2.0,12.0,64,0.00,,,0.00,Wunderground v.1.15,2013-01-15 03:23:00,
2013-01-14 22:28:00,40.0,28.4,30.30,WNW,302,1.0,9.0,63,0.00,,,0.00,Wunderground v.1.15,2013-01-15 03:28:00,
2013-01-14 22:33:00,39.8,28.6,30.31,WNW,297,9.0,10.0,64,0.00,,,0.00,Wunderground v.1.15,2013-01-15 03:33:00,
2013-01-14 22:34:00,39.8,28.6,30.31,NW,326,3.0,10.0,64,0.00,,,0.00,Wunderground v.1.15,2013-01-15 03:34:00,
2013-01-14 22:38:00,39.8,28.6,30.31,WSW,258,7.0,10.0,64,0.00,,,0.00,Wunderground v.1.15,2013-01-15 03:38:00,
2013-01-14 22:39:00,39.8,28.6,30.31,NNW,341,4.0,10.0,64,0.00,,,0.00,Wunderground v.1.15,2013-01-15 03:39:00,
2013-01-14 22:40:00,39.7,28.5,30.31,West,279,3.0,10.0,64,0.00,,,0.00,Wunderground v.1.15,2013-01-15 03:40:00,
2013-01-14 22:43:00,39.7,28.5,30.31,WNW,288,5.0,10.0,64,0.00,,,0.00,Wunderground v.1.15,2013-01-15 03:43:00,
2013-01-14 22:44:00,39.7,28.5,30.31,WSW,255,3.0,10.0,64,0.00,,,0.00,Wunderground v.1.15,2013-01-15 03:44:00,
2013-01-14 22:45:00,39.7,28.5,30.31,West,267,3.0,10.0,64,0.00,,,0.00,Wunderground v.1.15,2013-01-15 03:45:00,
2013-01-14 22:49:00,39.5,28.3,30.31,WSW,238,2.0,15.0,64,0.00,,,0.00,Wunderground v.1.15,2013-01-15 03:49:00,
2013-01-14 22:50:00,39.5,28.3,30.31,WNW,300,4.0,15.0,64,0.00,,,0.00,Wunderground v.1.15,2013-01-15 03:50:00,
2013-01-14 22:54:00,39.5,28.3,30.31,NNW,335,6.0,15.0,64,0.00,,,0.00,Wunderground v.1.15,2013-01-15 03:54:00,
2013-01-14 22:55:00,39.4,28.2,30.31,NNW,348,3.0,15.0,64,0.00,,,0.00,Wunderground v.1.15,2013-01-15 03:55:00,
2013-01-14 22:56:00,39.4,28.2,30.31,WNW,287,3.0,15.0,64,0.00,,,0.00,Wunderground v.1.15,2013-01-15 03:56:00,
2013-01-14 22:59:00,39.3,28.5,30.31,WSW,250,1.0,7.0,65,0.00,,,0.00,Wunderground v.1.15,2013-01-15 03:59:00,
2013-01-14 23:00:00,39.3,28.1,30.31,West,279,2.0,7.0,64,0.00,,,0.00,Wunderground v.1.15,2013-01-15 04:00:00,
2013-01-14 23:01:00,39.3,28.5,30.31,West,267,5.0,8.0,65,0.00,,,0.00,Wunderground v.1.15,2013-01-15 04:01:00,
2013-01-14 23:04:00,39.2,28.0,30.31,West,269,3.0,8.0,64,0.00,,,0.00,Wunderground v.1.15,2013-01-15 04:04:00,
2013-01-14 23:06:00,39.2,28.0,30.31,WNW,302,6.0,7.0,64,0.00,,,0.00,Wunderground v.1.15,2013-01-15 04:06:00,
2013-01-14 23:09:00,39.1,27.9,30.30,WNW,294,4.0,8.0,64,0.00,,,0.00,Wunderground v.1.15,2013-01-15 04:09:00,
2013-01-14 23:10:00,39.1,27.9,30.30,WSW,255,6.0,8.0,64,0.00,,,0.00,Wunderground v.1.15,2013-01-15 04:10:00,
2013-01-14 23:11:00,39.1,27.9,30.31,NNW,341,9.0,10.0,64,0.00,,,0.00,Wunderground v.1.15,2013-01-15 04:11:00,
2013-01-14 23:14:00,39.0,28.2,30.32,West,270,1.0,10.0,65,0.00,,,0.00,Wunderground v.1.15,2013-01-15 04:14:00,
2013-01-14 23:15:00,39.0,28.2,30.32,West,270,2.0,10.0,65,0.00,,,0.00,Wunderground v.1.15,2013-01-15 04:15:00,
2013-01-14 23:16:00,39.0,28.2,30.31,NNW,338,3.0,5.0,65,0.00,,,0.00,Wunderground v.1.15,2013-01-15 04:16:00,
2013-01-14 23:20:00,39.0,28.2,30.32,NW,319,3.0,8.0,65,0.00,,,0.00,Wunderground v.1.15,2013-01-15 04:20:00,
2013-01-14 23:21:00,39.0,28.2,30.32,NNW,343,9.0,9.0,65,0.00,,,0.00,Wunderground v.1.15,2013-01-15 04:21:00,
2013-01-14 23:23:00,39.0,28.2,30.32,WNW,296,3.0,9.0,65,0.00,,,0.00,Wunderground v.1.15,2013-01-15 04:23:00,
2013-01-14 23:25:00,38.9,28.1,30.32,NW,323,4.0,9.0,65,0.00,,,0.00,Wunderground v.1.15,2013-01-15 04:25:00,
2013-01-14 23:26:00,38.9,28.1,30.32,NW,317,7.0,7.0,65,0.00,,,0.00,Wunderground v.1.15,2013-01-15 04:26:00,
2013-01-14 23:29:00,38.9,28.1,30.31,NW,321,1.0,7.0,65,0.00,,,0.00,Wunderground v.1.15,2013-01-15 04:29:00,
2013-01-14 23:30:00,38.9,28.1,30.32,West,279,3.0,7.0,65,0.00,,,0.00,Wunderground v.1.15,2013-01-15 04:30:00,
2013-01-14 23:32:00,38.9,28.1,30.31,WNW,290,5.0,7.0,65,0.00,,,0.00,Wunderground v.1.15,2013-01-15 04:32:00,
2013-01-14 23:34:00,38.8,28.0,30.31,West,277,3.0,7.0,65,0.00,,,0.00,Wunderground v.1.15,2013-01-15 04:34:00,
2013-01-14 23:35:00,38.8,28.0,30.32,WNW,294,1.0,7.0,65,0.00,,,0.00,Wunderground v.1.15,2013-01-15 04:35:00,
2013-01-14 23:36:00,38.8,28.0,30.32,WSW,255,3.0,7.0,65,0.00,,,0.00,Wunderground v.1.15,2013-01-15 04:36:00,
2013-01-14 23:37:00,38.8,28.0,30.32,NNW,339,1.0,6.0,65,0.00,,,0.00,Wunderground v.1.15,2013-01-15 04:37:00,
2013-01-14 23:40:00,38.8,28.0,30.32,WNW,286,1.0,10.0,65,0.00,,,0.00,Wunderground v.1.15,2013-01-15 04:40:00,
2013-01-14 23:41:00,38.8,28.0,30.32,NW,319,4.0,10.0,65,0.00,,,0.00,Wunderground v.1.15,2013-01-15 04:41:00,
2013-01-14 23:43:00,38.8,28.0,30.32,NW,306,6.0,10.0,65,0.00,,,0.00,Wunderground v.1.15,2013-01-15 04:43:00,
2013-01-14 23:44:00,38.6,28.2,30.32,NW,311,5.0,5.0,66,0.00,,,0.00,Wunderground v.1.15,2013-01-15 04:44:00,
2013-01-14 23:45:00,38.8,28.0,30.32,NNW,341,5.0,10.0,65,0.00,,,0.00,Wunderground v.1.15,2013-01-15 04:45:00,
2013-01-14 23:46:00,38.7,27.9,30.32,WNW,295,3.0,4.0,65,0.00,,,0.00,Wunderground v.1.15,2013-01-15 04:46:00,
2013-01-14 23:47:00,38.5,28.1,30.33,West,262,5.0,5.0,66,0.00,,,0.00,Wunderground v.1.15,2013-01-15 04:47:00,
2013-01-14 23:48:00,38.5,28.1,30.33,NW,319,1.0,5.0,66,0.00,,,0.00,Wunderground v.1.15,2013-01-15 04:48:00,
2013-01-14 23:49:00,38.7,27.9,30.31,NNW,331,1.0,6.0,65,0.00,,,0.00,Wunderground v.1.15,2013-01-15 04:49:00,
2013-01-14 23:50:00,38.7,27.9,30.31,West,270,5.0,6.0,65,0.00,,,0.00,Wunderground v.1.15,2013-01-15 04:50:00,
2013-01-14 23:51:00,38.7,27.9,30.31,NW,308,3.0,6.0,65,0.00,,,0.00,Wunderground v.1.15,2013-01-15 04:51:00,
2013-01-14 23:52:00,38.4,28.0,30.32,NNW,338,2.0,7.0,66,0.00,,,0.00,Wunderground v.1.15,2013-01-15 04:52:00,
2013-01-14 23:53:00,38.4,28.0,30.32,WNW,296,7.0,7.0,66,0.00,,,0.00,Wunderground v.1.15,2013-01-15 04:53:00,
2013-01-14 23:54:00,38.6,27.8,30.31,WNW,300,1.0,7.0,65,0.00,,,0.00,Wunderground v.1.15,2013-01-15 04:54:00,
2013-01-14 23:55:00,38.6,27.8,30.30,WNW,300,1.0,7.0,65,0.00,,,0.00,Wunderground v.1.15,2013-01-15 04:55:00,
2013-01-14 23:57:00,38.6,27.8,30.31,WNW,300,3.0,3.0,65,0.00,,,0.00,Wunderground v.1.15,2013-01-15 04:57:00,
2013-01-14 23:59:00,38.6,27.8,30.32,West,273,1.0,4.0,65,0.00,,,0.00,Wunderground v.1.15,2013-01-15 04:59:00,